GFSMA_con_mlcape_000.txt.gz
CAPE
586 537 597 789 705 665 670 651 603 543 323 186 173 237 319 289 391 529 499 442 906 1081 1180 1225 983 1285 859 575 509 946 722 545 487 500 503 273 210 139 150 199 183 261 497
842 697 709 671 583 553 464 587 535 333 70 77 40 43 69 104 107 182 325 386 386 992 1024 1009 1122 1100 1423 940 700 840 585 708 519 523 536 814 425 309 381 314 168 179 248
955 898 687 583 490 312 313 277 296 122 129 64 22 0 0 15 108 79 194 412 480 584 760 1039 974 884 909 1388 934 721 988 695 1025 638 571 555 575 549 596 514 239 296 515
1098 929 650 392 378 297 276 308 203 160 124 54 25 50 12 21 73 132 146 165 258 587 802 846 1044 916 783 808 1318 1210 961 886 645 686 1036 822 488 517 459 325 444 464 469
830 754 544 450 382 336 348 246 173 170 78 52 77 104 16 36 68 100 75 99 114 202 309 485 663 856 710 1014 1132 1091 1037 1146 1231 891 707 1059 1011 731 552 380 554 721 682
766 623 545 447 454 348 252 152 167 128 115 115 115 30 16 32 7 0 54 154 150 314 406 452 616 774 834 727 603 713 895 867 1026 1161 1037 1000 1127 1226 978 700 480 378 297
748 710 535 427 242 213 146 173 145 123 84 66 28 1 1 0 0 0 3 0 0 0 190 619 841 961 908 795 774 663 581 636 761 920 1182 1197 1177 1020 1078 1078 898 707 431
754 582 311 175 173 138 57 13 35 53 79 144 38 0 0 3 2 0 0 0 0 0 0 0 26 62 159 533 702 835 712 619 704 867 873 876 1169 1141 1057 908 996 980 812
605 467 301 53 16 0 0 0 0 19 87 117 95 19 0 0 0 0 0 0 0 0 0 0 0 0 18 79 111 199 275 431 639 545 570 864 856 882 1021 1286 1172 1019 897
551 233 0 0 0 0 0 0 21 70 80 16 27 56 3 16 0 0 0 0 0 0 0 0 0 0 0 0 0 0 29 221 354 428 697 643 468 716 880 915 1180 1224 1043
187 0 0 0 0 0 0 0 0 0 0 5 1 0 0 0 0 0 0 0 0 0 0 0 0 0 0 0 0 0 0 0 2 211 434 474 405 640 675 1030 1288 1183 1307
0 0 0 0 0 0 0 0 0 0 0 12 30 0 0 0 0 0 0 0 0 0 0 0 0 0 0 0 0 0 0 0 0 0 0 51 386 518 504 681 980 1303 1382
0 0 0 0 0 0 0 0 0 0 0 0 18 0 0 0 0 0 0 0 0 0 0 0 0 0 0 0 0 0 0 0 0 0 0 0 0 41 344 561 779 935 1212
0 0 0 0 0 0 0 0 0 0 0 0 20 8 0 0 0 0 0 0 0 0 0 0 0 0 0 0 0 0 0 0 0 0 0 0 0 0 1 97 348 628 705
0 0 0 0 0 0 0 0 0 0 0 0 0 0 0 0 0 0 0 0 0 0 0 0 0 0 0 0 0 0 0 0 0 0 0 0 0 0 0 0 4 99 258
0 0 0 0 0 0 0 0 0 0 0 0 0 0 0 38 40 6 0 0 0 0 0 0 0 0 0 0 0 0 0 0 0 0 0 0 0 0 0 0 0 0 19
0 0 0 0 0 0 0 0 0 0 0 0 12 27 26 33 37 23 0 0 0 0 0 0 0 0 0 0 0 0 0 0 0 0 0 0 0 0 0 0 0 0 0
0 0 0 0 0 0 0 0 0 0 0 0 0 29 46 53 28 30 21 3 0 0 0 0 0 0 0 0 0 0 0 0 0 0 0 0 0 0 0 0 0 0 0
0 0 0 0 0 0 0 0 0 0 0 0 9 31 24 31 0 0 0 0 0 11 1 0 0 0 0 0 0 0 0 0 0 0 0 0 0 0 0 0 0 0 0
0 0 0 0 0 0 0 0 0 0 0 5 27 48 10 1 0 0 0 0 0 5 21 5 0 0 0 0 0 0 0 0 0 0 0 0 0 0 0 0 0 0 0
15 5 0 0 0 0 0 0 0 0 3 44 41 27 4 0 0 0 0 0 0 0 17 6 0 0 0 0 0 0 0 0 0 0 0 0 0 0 0 0 0 0 0
89 23 3 0 0 0 2 0 19 23 28 56 34 6 0 0 0 0 7 15 11 0 24 25 0 0 0 0 0 0 0 0 1 0 0 0 7 5 2 0 0 6 0
93 6 4 4 9 22 16 22 35 37 55 31 12 0 0 0 0 0 0 0 20 56 88 73 0 0 0 0 0 1 0 1 5 0 3 4 4 2 7 2 0 0 0
0 2 19 43 24 85 69 46 74 28 26 26 6 0 0 0 0 0 0 0 3 1 0 0 0 0 0 0 4 3 3 6 2 6 8 5 6 3 7 3 0 0 0
17 47 97 120 93 102 136 133 41 46 26 14 1 0 0 0 0 0 0 0 0 0 0 0 0 0 0 0 0 2 0 2 9 7 5 5 2 4 5 7 3 0 0
24 43 96 95 79 89 133 22 50 39 30 0 0 0 0 0 0 0 0 0 0 0 0 0 0 0 1 0 0 1 1 7 8 3 3 4 5 3 7 0 0 1 0

GFSMA_con_mlcape_003.txt.gz
CAPE
1256 1339 1139 1447 1507 1362 1257 1210 1069 962 724 516 541 448 409 533 611 624 894 858 844 956 1332 1261 1220 1199 990 599 1004 1208 901 797 592 1067 675 821 637 157 77 195 310 282 256
1332 913 1036 973 1270 1193 1011 1021 964 721 524 545 232 309 254 209 427 513 439 905 628 650 998 1264 1255 1065 1235 1197 728 549 1203 1202 857 615 730 757 534 366 279 153 211 153 225
1340 1130 904 838 1213 954 826 839 856 602 404 305 283 192 334 311 252 636 535 655 927 908 925 1048 915 954 840 1225 1283 954 866 795 1059 750 558 467 904 698 380 427 563 261 135
1047 1016 882 597 791 869 731 772 697 530 555 372 266 330 275 220 454 556 568 555 470 651 922 1045 884 890 1021 789 1016 1109 906 936 961 1077 1031 796 610 571 454 562 727 457 321
1272 1203 895 650 856 955 702 745 588 597 474 357 305 241 129 164 336 306 578 709 724 714 538 785 679 690 933 1097 1149 958 994 997 841 800 978 1099 881 953 711 513 458 376 606
1088 1255 1035 1011 958 918 782 615 583 646 481 432 200 117 141 130 93 211 305 174 15 434 943 1275 1306 1311 960 846 736 702 935 865 856 972 946 970 1193 1139 1051 863 678 422 535
1109 956 862 870 980 743 726 646 635 483 216 368 197 1 34 74 13 21 34 0 0 0 12 376 931 1070 1153 1154 1117 1042 883 779 750 758 798 941 954 1107 1256 987 953 846 679
1459 1330 1111 766 571 396 402 399 331 223 237 377 153 16 0 21 31 0 0 0 0 0 0 0 45 261 577 800 748 545 675 755 990 1045 859 755 759 904 964 1162 1092 823 793
1441 1253 838 542 324 114 4 201 140 184 93 286 272 65 0 1 0 0 0 0 0 0 0 0 0 4 0 0 4 45 54 250 515 776 1090 1139 846 690 682 782 923 1047 893
1248 958 746 82 127 75 118 86 34 302 297 67 134 194 73 34 0 0 0 0 0 0 0 0 0 0 0 0 0 0 0 0 9 139 564 857 885 990 878 665 632 723 955
1149 720 165 0 26 91 134 0 138 67 141 25 28 78 21 0 0 0 0 0 0 0 0 0 0 0 0 0 0 0 0 0 0 0 0 0 126 627 811 815 1072 990 872
687 432 0 0 115 147 59 0 19 0 0 42 96 34 0 0 0 0 0 0 0 0 0 0 0 0 0 0 0 0 0 0 0 0 0 0 0 0 122 593 760 854 1206
623 270 0 0 107 99 2 0 0 0 0 0 83 32 35 2 0 1 6 4 0 0 0 0 0 0 0 0 0 0 0 0 0 0 0 0 0 0 0 0 93 588 855
510 96 0 0 63 1 0 0 0 0 0 0 29 20 48 51 48 48 44 28 8 1 0 0 0 0 0 0 0 0 0 0 0 0 0 0 0 0 0 0 0 5 160
320 50 0 7 17 0 0 0 0 0 0 0 41 86 34 42 58 70 67 47 30 10 7 1 0 0 0 0 0 0 0 0 0 0 0 0 0 0 0 0 0 0 0
155 62 1 5 0 0 0 0 0 0 0 0 0 68 96 82 108 109 107 84 43 28 2 7 9 0 0 0 0 0 0 0 0 0 0 0 0 0 0 0 0 0 0
120 34 20 5 6 8 3 0 0 0 0 0 42 39 91 74 51 105 129 88 74 55 46 0 2 12 0 0 1 2 0 0 0 0 0 0 0 0 0 0 0 0 0
97 25 40 35 38 76 82 20 0 0 0 0 0 43 72 106 141 138 76 70 56 83 50 24 0 0 6 1 6 22 2 0 0 0 0 0 0 0 0 0 0 0 0
0 58 40 22 34 74 141 162 3 0 0 13 27 44 99 177 72 43 69 41 17 45 71 63 17 1 0 16 15 30 31 2 1 0 0 0 0 0 0 0 0 0 0
31 20 2 9 41 107 104 47 0 0 0 19 47 83 163 70 33 32 44 42 69 71 47 59 34 7 5 23 66 61 15 11 5 0 0 0 0 0 0 0 0 0 0
0 0 0 0 16 59 44 3 9 63 166 199 176 219 102 130 42 9 3 0 36 62 37 23 33 24 12 23 23 25 17 19 6 7 3 0 0 0 0 0 0 0 0
0 0 0 0 23 58 30 9 26 209 359 442 281 87 87 58 15 0 0 0 4 30 51 22 29 30 69 49 34 55 21 8 1 3 7 4 2 0 0 0 2 0 0
0 0 3 44 115 108 82 38 38 185 322 298 155 157 158 107 27 41 0 0 5 4 22 47 102 121 97 59 40 9 2 7 4 4 8 2 6 0 0 0 1 0 0
0 4 22 234 240 260 161 63 36 197 218 248 203 153 160 124 111 17 2 0 10 38 69 37 37 36 15 1 1 5 8 4 6 7 26 11 1 0 1 8 13 7 0
0 7 62 86 124 206 41 51 95 116 116 96 173 192 64 35 0 0 0 0 0 0 1 0 0 0 0 0 0 3 2 9 5 7 0 0 0 3 8 7 8 6 0
6 28 45 60 100 154 56 75 7 27 55 69 125 39 0 0 0 0 0 0 0 7 0 0 0 0 0 0 0 2 1 1 3 0 0 3 4 9 7 2 0 1 4

GFSMA_con_mlcape_006.txt.gz
CAPE
1278 1482 1437 1316 1274 1333 1186 1112 1175 1204 1099 871 733 312 70 54 247 194 322 1001 751 899 1441 1536 1451 1554 1297 1113 1364 1191 1115 815 554 447 539 666 765 625 505 370 297 720 645
1139 1073 1194 1064 1152 1355 1091 1092 1232 1145 1001 722 239 162 38 4 50 266 154 450 946 586 953 1570 1572 1332 1499 1440 888 1107 1539 1252 1114 960 922 1102 921 844 377 110 241 368 361
1420 1270 1166 1041 1026 1211 1514 1263 1298 1152 669 339 120 22 80 92 125 220 223 117 473 1109 672 1048 1060 1048 1028 1429 1498 1199 747 946 1487 1278 974 709 864 820 767 579 271 264 427
1379 1338 1194 986 1002 960 1089 1124 1004 714 293 122 18 31 54 47 122 178 223 266 67 64 980 881 945 915 1112 1159 1336 1222 1242 932 1011 1048 1277 877 678 673 1011 851 694 821 589
1225 1386 1163 1059 1187 930 989 788 681 375 43 7 10 6 32 40 46 43 281 529 620 407 125 1001 677 717 1062 1270 1315 1251 1194 1036 917 876 961 1127 1114 808 603 721 529 501 485
1364 1338 1193 1080 1172 964 845 728 521 151 103 11 2 2 23 11 25 66 139 61 66 358 593 1172 848 956 992 994 1106 1207 1205 921 918 867 810 933 1018 1329 1100 961 997 671 417
1497 1577 1135 1157 1217 1077 633 313 65 13 0 30 0 10 19 26 20 10 11 0 0 0 119 700 844 936 1181 919 861 1078 1167 1313 1109 1179 882 859 814 940 1141 1311 1257 1075 893
1805 1479 1381 1291 1188 194 318 45 14 2 7 20 16 7 5 29 31 21 0 0 0 0 0 12 247 670 757 861 478 474 354 568 883 1092 1273 1215 911 780 780 879 1023 1134 1088
2006 1876 1728 838 651 9 1 35 31 9 3 75 70 4 2 3 0 20 14 0 0 0 0 0 0 0 0 0 6 4 0 0 98 457 901 1087 1077 1046 903 746 756 809 872
1863 1775 1335 747 21 0 2 32 7 1 18 11 12 9 0 14 7 8 19 5 0 0 0 0 0 0 0 0 0 0 0 0 0 0 0 37 256 683 1012 982 901 831 706
1684 1002 1164 233 0 0 64 37 8 18 8 0 7 16 24 5 0 0 0 8 10 10 0 0 0 0 0 0 0 0 0 0 0 0 0 0 0 0 68 502 892 733 852
980 1026 1116 307 0 0 51 26 0 0 0 1 16 40 11 8 11 4 1 1 5 4 6 0 0 0 0 0 0 0 0 0 0 0 0 0 0 0 0 0 22 445 835
369 685 1221 413 49 126 72 0 0 0 0 2 7 15 23 20 25 19 15 12 16 24 19 13 22 0 0 0 0 0 0 0 0 0 0 0 0 0 0 0 0 0 59
124 208 1190 354 110 62 66 0 0 0 9 8 5 17 14 25 17 25 23 36 24 24 40 58 36 9 1 1 0 0 0 0 0 0 0 0 0 0 0 0 0 0 0
170 630 715 351 69 106 12 0 0 1 0 0 2 6 26 13 17 38 50 43 32 12 7 14 23 29 11 24 9 0 0 0 0 0 0 0 0 0 0 0 0 0 0
952 521 488 147 47 57 4 12 0 0 0 0 0 0 3 10 37 48 56 51 37 16 0 4 0 9 24 6 43 2 1 0 0 0 0 0 0 0 0 0 0 0 0
1147 660 489 151 105 70 12 9 6 0 0 0 0 0 19 98 49 33 40 25 28 35 32 0 1 1 11 41 35 69 41 23 13 1 0 0 0 0 0 0 0 0 0
813 633 387 187 112 77 45 90 26 0 0 0 0 0 63 77 86 89 79 55 30 25 57 22 0 3 13 5 27 57 46 44 36 31 10 0 0 0 0 0 0 0 0
43 55 0 15 123 93 58 98 142 88 4 0 0 16 58 90 79 57 64 20 43 47 58 63 59 68 19 8 29 48 65 33 27 40 24 0 0 0 0 0 0 0 0
0 0 0 0 0 149 122 117 131 148 8 0 35 90 142 201 91 94 79 79 99 82 73 48 74 43 39 31 41 33 23 43 20 37 28 3 0 0 0 0 0 0 0
0 0 0 0 0 103 64 65 104 55 41 72 116 182 252 379 130 123 47 14 50 27 56 57 48 55 16 23 46 26 31 52 49 89 32 6 0 0 0 1 0 0 0
0 0 0 0 0 0 0 0 40 66 113 232 312 404 386 235 241 120 24 0 0 0 18 6 6 6 1 67 70 39 47 32 37 37 12 0 6 7 7 0 0 0 0
0 0 0 0 0 39 5 0 17 31 126 253 518 397 252 116 186 233 151 39 0 0 0 28 81 55 52 44 57 26 45 26 1 0 1 7 20 15 7 3 0 0 0
0 21 115 46 3 23 133 48 23 139 272 614 591 390 178 139 159 187 188 92 68 79 78 53 28 19 35 24 4 0 1 0 2 10 25 30 32 9 7 3 0 0 0
171 339 417 284 212 254 203 80 74 183 353 545 241 139 64 57 140 9 2 20 25 9 1 0 0 0 0 0 0 0 0 8 9 6 0 28 23 27 0 0 0 1 0
571 383 447 407 378 596 70 42 65 280 267 153 49 130 73 74 0 0 0 0 0 0 8 0 0 2 0 1 1 3 4 6 16 17 9 35 22 0 1 2 2 3 1

GFSMA_con_mlcape_009.txt.gz
CAPE
1296 1382 1533 1168 1412 1167 1132 951 944 995 845 1018 639 311 149 9 0 6 210 998 833 779 1674 1739 1371 1534 1598 1282 1612 1479 1340 873 460 391 731 409 508 634 898 725 429 421 803
1190 1341 1477 1219 1083 1082 1209 1123 1387 1064 951 713 361 165 36 55 61 129 75 903 869 805 858 1680 1765 1411 1186 1530 1379 1499 1489 1248 988 697 548 692 769 941 826 463 195 252 415
1334 1639 1249 1213 878 1094 1677 1324 1033 1090 824 137 27 13 19 32 66 152 111 64 916 1016 736 862 1406 1556 1511 1577 1465 1202 1203 1457 1408 1324 1243 1041 1027 1111 947 641 315 215 232
1843 1788 1181 1118 1118 1322 1138 1251 1249 596 31 9 7 15 10 10 51 60 179 108 99 231 1079 875 907 713 883 1159 1415 1457 1377 993 986 1147 1234 1167 1111 962 709 707 872 642 508
1613 1633 1201 1051 1401 1118 1072 1170 969 615 5 1 1 1 17 35 17 48 31 203 293 347 202 939 998 858 987 1360 1503 1240 1095 1142 970 822 927 1104 1274 1000 918 750 751 802 679
1889 1675 1158 1505 1508 1046 1014 734 566 34 0 3 0 0 19 55 22 37 49 15 8 158 405 516 1093 895 920 1222 1157 1352 1370 1206 1031 837 795 905 1053 1062 1122 1048 857 779 878
1741 1578 1532 1394 1319 1094 758 161 27 3 5 22 0 22 20 11 30 35 11 0 0 0 35 354 573 911 1115 859 963 1106 1179 1182 1021 803 842 840 822 912 1057 1074 1134 1106 1093
1708 1696 1726 998 1137 465 271 72 1 0 5 28 11 3 10 33 23 21 0 0 0 0 0 0 250 580 787 863 573 98 111 434 827 1092 1020 918 1005 886 895 949 999 1031 1123
1819 2046 1874 1665 1114 226 0 90 2 1 1 21 8 1 7 21 6 18 11 0 0 0 0 0 0 0 0 0 215 0 0 0 0 44 292 632 834 1011 1042 971 910 892 871
1575 1803 1823 839 645 0 6 4 1 0 0 1 7 1 0 0 0 14 12 12 0 1 0 0 0 0 0 0 0 0 0 0 0 0 0 0 8 114 364 768 1024 897 857
1163 1035 895 630 153 0 4 74 1 1 56 0 1 8 21 0 0 0 0 16 22 27 9 0 0 0 0 0 0 0 0 0 0 0 0 0 0 0 0 1 142 527 959
1165 878 543 549 114 0 69 52 31 7 0 10 3 7 13 6 15 14 5 4 12 13 35 20 10 10 0 0 0 0 0 0 0 0 0 0 0 0 0 0 0 0 31
585 1145 721 860 283 46 124 60 28 5 3 0 0 8 21 12 14 11 11 10 20 28 44 35 17 30 1 0 1 0 0 0 0 0 0 0 0 0 0 0 0 0 0
426 1361 1124 784 380 73 153 94 8 0 3 0 0 0 1 11 27 17 22 30 18 21 53 71 59 56 13 0 1 0 0 0 0 0 0 0 0 0 0 0 0 0 0
410 292 967 680 422 54 151 37 0 24 5 2 3 6 1 5 8 12 26 41 39 23 32 47 40 76 42 34 39 6 0 1 0 0 0 0 0 0 0 0 0 0 0
750 611 966 719 316 90 201 72 10 0 1 0 0 0 2 0 2 15 20 30 28 20 16 27 37 48 44 33 67 66 31 8 0 0 0 0 0 0 0 0 0 0 0
1634 880 1137 732 167 145 143 106 79 6 13 24 0 0 0 9 0 5 10 16 3 15 7 0 2 15 62 35 31 52 75 79 51 20 12 0 0 0 0 0 0 0 0
2041 1333 1018 806 182 88 53 118 100 37 0 0 0 0 6 24 140 297 1 31 29 1 9 9 1 2 12 40 74 69 34 38 56 29 2 0 0 0 0 0 0 0 0
2413 1582 1119 863 187 122 102 129 128 91 70 18 4 11 49 157 157 83 134 54 27 34 40 12 24 32 17 16 16 92 62 79 71 19 12 8 7 0 0 0 0 0 0
2675 1592 1041 752 248 226 121 142 139 175 281 261 101 78 144 209 236 256 241 246 173 85 51 51 42 46 44 31 97 45 31 19 17 45 31 9 21 15 0 0 0 0 0
2569 1585 839 470 412 122 138 248 58 51 249 315 88 92 194 287 279 361 315 170 194 87 80 76 36 21 30 57 54 63 69 56 36 27 12 36 34 27 1 0 0 2 0
2203 1292 514 108 12 0 0 5 92 1 207 238 125 251 448 514 236 124 126 144 91 46 30 40 18 0 33 41 23 20 33 29 0 7 22 0 0 0 0 18 35 13 0
1627 774 246 0 0 27 2 2 0 7 63 221 366 492 592 541 166 209 258 157 83 38 33 42 63 91 56 100 34 5 4 9 0 0 0 0 0 17 80 31 37 1 0
1398 712 194 4 95 118 29 0 0 10 21 63 285 587 750 736 664 269 101 58 179 317 217 118 62 102 47 9 17 3 0 0 0 2 26 15 45 64 119 148 13 0 0
1435 720 258 80 383 488 165 10 23 60 233 437 619 731 930 907 295 78 56 35 71 98 145 19 0 0 0 0 0 0 0 2 6 17 2 6 32 36 39 3 0 0 0
1336 934 502 555 765 790 378 109 150 314 417 566 612 1022 475 78 54 40 48 16 75 135 70 33 67 0 0 1 0 0 18 32 28 24 20 36 5 0 7 0 2 0 0

GFSMA_con_mlcape_015.txt.gz
CAPE
706 368 623 795 521 89 652 746 935 898 776 930 828 186 1 2 12 600 731 744 868 1134 1593 1501 1557 1647 1549 1318 1425 1322 1167 733 651 1100 1018 908 893 556 597 670 933 849 631
1230 1190 1294 1063 1062 930 1182 1228 750 619 652 610 649 681 7 20 16 99 652 696 629 591 936 1418 1529 1485 1615 1458 1591 1559 1592 1163 777 486 831 1083 788 695 742 741 794 695 368
1023 1366 1102 1318 843 1289 1278 836 918 906 194 203 6 24 0 9 12 0 23 371 710 576 687 904 1079 1061 1326 1398 1524 1717 1604 1492 1245 882 547 409 595 594 851 974 987 621 262
1283 1438 1118 869 813 895 792 996 923 864 153 0 0 1 0 9 19 18 28 259 670 698 614 517 509 507 658 991 1472 1405 1285 1538 1360 1245 1156 1078 894 1003 997 1027 758 697 619
1301 712 1178 1164 768 1085 866 859 505 279 4 0 0 0 3 2 20 35 58 17 148 621 702 486 367 408 736 1098 987 1047 994 1124 1118 1237 1172 1254 1246 999 939 955 1051 971 728
1384 1014 1065 1239 1186 1103 663 352 206 9 0 0 0 0 0 1 0 21 10 0 87 736 741 609 572 683 684 1180 1166 1219 1171 1026 987 1004 976 815 877 960 1049 1049 1052 882 630
1114 1349 1240 1033 1333 953 482 234 16 0 0 0 0 3 4 24 5 0 0 0 0 1 408 444 733 746 587 534 666 827 1041 997 1018 955 807 680 686 685 756 874 863 980 1081
1533 1209 769 766 996 1071 356 10 0 0 0 1 0 0 12 12 26 0 0 0 0 0 12 0 2 359 365 178 0 0 59 361 613 939 1150 1067 1006 919 859 757 634 595 782
1365 1039 1138 1010 924 349 182 0 0 0 0 8 0 0 6 7 20 1 4 0 0 0 0 0 0 0 243 1 0 0 0 0 0 0 4 83 199 355 513 722 894 925 762
1398 1216 1335 1209 737 41 0 0 23 0 9 0 0 0 0 0 10 21 9 0 5 0 0 0 0 0 0 0 0 0 0 0 0 0 0 0 0 0 0 2 50 270 554
1519 1484 1291 1208 499 2 89 58 20 1 41 11 0 0 0 0 2 0 16 23 25 9 3 0 0 0 0 0 0 0 0 0 0 0 0 0 0 0 0 0 0 0 0
1049 1294 1217 837 316 0 34 62 63 23 58 21 0 0 0 0 0 0 0 0 6 16 13 15 3 0 0 0 0 0 0 0 0 0 0 0 0 0 0 0 0 0 0
1254 1619 1288 500 250 1 108 93 63 54 60 9 7 0 0 0 0 0 0 0 0 2 8 21 23 4 0 0 0 0 0 0 0 0 0 0 0 0 0 0 0 0 0
1331 1125 880 462 245 23 319 148 148 61 80 0 15 0 0 0 0 0 0 0 0 0 0 0 32 23 9 0 0 0 0 0 0 0 0 0 0 0 0 0 0 0 0
1362 1248 818 518 262 138 8 282 178 45 115 17 0 0 0 0 0 0 0 0 0 0 0 0 0 16 21 3 0 1 0 0 0 0 0 0 0 0 0 0 0 0 0
1100 996 992 633 520 252 120 185 139 84 0 81 35 2 0 0 1 0 0 0 0 0 0 0 0 0 0 2 11 9 1 4 0 0 0 0 0 0 0 0 0 0 0
1124 925 1016 867 614 430 227 202 136 57 24 4 18 0 8 1 5 0 4 0 0 0 0 0 0 0 0 0 0 0 0 0 8 9 0 0 0 0 0 0 1 0 0
1515 1269 1005 998 848 548 296 194 124 91 3 81 0 0 0 13 8 0 4 3 32 34 3 0 0 0 0 0 2 0 0 0 5 0 0 0 0 0 0 0 0 0 0
1596 1469 1288 970 864 718 451 306 157 71 17 18 19 0 3 0 0 1 40 38 63 62 47 7 0 6 2 16 10 0 0 0 20 44 22 16 2 1 0 0 0 0 0
2234 1664 1345 1137 917 779 533 422 260 125 2 37 121 105 101 6 0 61 121 123 103 75 53 30 20 7 6 22 15 12 0 0 0 0 0 0 0 0 0 0 0 0 0
2792 2411 1783 1311 1119 862 593 497 324 172 129 0 178 64 25 16 2 59 157 99 95 103 106 87 15 0 0 0 4 3 0 0 0 0 0 0 0 0 0 0 0 0 0
2706 2715 2361 1805 1486 1248 842 613 421 331 236 223 103 156 236 128 127 279 380 285 244 125 132 62 24 0 0 0 0 3 0 0 0 0 0 0 0 0 0 0 0 0 0
3165 3139 2850 2371 1871 1589 843 489 448 374 330 332 243 267 553 348 128 146 167 216 201 145 159 59 13 0 0 0 20 27 0 0 0 0 0 0 0 0 0 0 0 0 0
3355 3368 3158 2775 2291 1550 792 450 203 277 320 303 365 490 306 285 179 288 398 394 219 146 163 82 3 2 0 52 71 59 6 0 0 0 0 0 0 0 0 0 0 0 0
3417 3313 2850 2410 1957 1232 618 120 8 11 115 103 112 215 381 367 302 248 184 156 191 165 165 139 187 192 120 106 133 39 2 7 0 0 0 0 0 0 0 0 0 0 0
3007 2794 2498 1994 1283 864 267 177 16 3 0 0 3 35 264 238 238 132 42 73 61 88 108 94 83 16 0 0 0 0 12 3 3 0 0 0 0 0 0 0 0 0 0

GFSMA_con_mlcape_018.txt.gz
CAPE
528 344 521 642 557 290 330 584 822 923 959 854 851 309 10 42 422 544 273 445 415 926 1124 1686 1530 1393 1211 1543 1244 1322 1084 525 474 721 973 937 891 388 424 635 615 527 561
607 366 543 858 758 668 328 1012 787 565 525 214 189 389 374 23 178 379 428 603 462 673 1002 1157 1160 1398 1622 1433 1469 1419 1346 1013 641 875 1111 1058 797 791 355 765 787 896 811
921 914 1032 980 830 1039 1125 628 801 682 50 5 0 20 16 15 19 68 241 363 532 549 483 910 917 975 1079 1382 1481 1670 1537 1374 1100 690 458 979 1154 689 694 771 803 933 532
1065 999 907 524 787 786 823 725 683 623 62 1 0 0 5 25 27 12 34 148 640 535 491 325 475 589 751 856 817 1101 1116 1166 1214 1130 828 526 341 435 540 819 832 903 774
1087 1095 755 686 715 878 675 723 493 272 2 0 0 0 8 17 31 42 34 222 502 652 504 453 334 543 669 760 845 915 973 926 985 1043 989 922 1034 876 915 944 915 748 638
1187 686 754 906 699 877 731 466 156 0 0 0 0 0 6 1 22 20 0 134 520 656 532 441 509 527 689 1139 1013 1032 989 977 805 761 808 624 736 767 765 885 856 745 696
1231 740 709 1084 1056 881 434 185 4 0 0 0 0 0 7 9 4 0 0 148 92 235 509 382 782 819 641 402 368 719 1165 1053 1032 955 842 775 760 721 674 635 596 670 878
1023 819 898 958 922 681 257 19 0 0 0 0 0 0 0 13 0 0 0 23 16 23 4 15 143 356 224 94 0 0 50 514 695 712 764 831 792 776 715 723 747 732 706
1010 937 1092 732 612 771 457 27 0 0 0 0 0 0 0 0 16 0 0 0 0 0 1 0 23 99 54 0 0 0 0 0 0 0 0 14 65 136 251 358 474 554 668
1057 1228 806 755 284 413 169 0 0 0 0 0 0 0 0 0 0 0 0 0 0 0 0 0 0 7 18 0 0 0 0 0 0 0 0 0 0 0 0 0 0 0 50
1220 1142 938 865 377 105 0 0 0 0 9 0 0 0 0 0 0 0 0 0 0 0 0 0 0 0 15 0 0 0 0 0 0 0 0 0 0 0 0 0 0 0 0
1431 1146 1056 993 289 107 25 9 0 0 15 11 0 0 0 0 0 0 0 0 0 0 0 0 0 0 0 0 0 0 0 0 0 0 0 0 0 0 0 0 0 0 0
1351 1296 1131 878 347 85 0 3 3 0 0 1 0 0 0 0 0 0 0 0 0 0 0 0 0 0 0 0 0 0 0 0 0 0 0 0 0 0 0 0 0 0 0
1289 1169 975 707 425 125 0 0 5 0 0 0 0 0 0 0 0 0 0 0 0 0 0 0 0 0 0 0 0 0 0 0 0 0 0 0 0 0 0 0 0 0 0
1173 1035 955 851 468 120 48 26 49 11 23 1 0 0 0 0 0 0 0 0 0 0 0 0 0 0 0 0 0 0 0 0 0 0 0 0 0 0 0 0 0 0 0
1294 1047 1032 831 433 179 72 34 32 67 14 9 0 0 0 0 0 0 0 0 0 0 0 0 0 0 0 0 0 0 0 0 0 0 0 0 0 0 6 14 4 0 0
1223 1110 964 733 478 243 114 54 20 53 20 0 7 0 0 0 0 0 0 0 0 0 0 1 0 0 0 0 0 0 0 0 0 0 0 18 16 0 0 14 10 4 0
1143 1157 1062 835 585 408 229 118 89 50 19 0 0 14 5 0 0 1 4 0 6 0 4 4 0 0 0 0 3 3 19 1 0 0 0 11 24 1 0 0 0 0 0
1387 1144 955 906 704 601 400 301 191 55 10 6 0 0 0 0 0 15 10 0 22 45 37 30 19 13 6 5 18 4 0 3 1 0 0 0 0 0 1 0 0 0 0
1569 1387 1163 1077 934 654 494 458 324 170 32 28 0 0 0 0 9 1 2 0 34 74 73 76 42 27 14 8 11 10 0 0 0 3 0 0 0 0 0 0 0 0 0
1741 1625 1389 1261 1036 899 705 563 407 280 101 62 38 0 34 60 29 19 8 0 72 99 91 83 28 28 16 7 0 0 0 0 0 0 0 0 0 0 0 0 0 0 0
2132 1912 1635 1503 1368 1115 897 663 586 430 270 126 77 0 2 69 139 83 9 8 49 143 79 31 17 22 29 7 0 0 0 0 0 0 0 0 0 0 0 0 0 0 0
2207 2185 2091 2010 1824 1548 1192 824 604 489 443 334 146 69 11 197 206 209 169 147 175 114 117 0 17 22 14 3 0 0 0 0 0 0 0 0 0 0 0 0 0 0 0
2593 2481 2330 2160 2141 1956 1510 1025 659 534 465 402 350 182 136 207 253 237 115 102 123 62 3 36 13 55 31 20 10 26 30 0 0 0 0 0 0 0 0 0 0 0 0
2949 2854 2874 2620 2393 1648 1506 1057 792 550 466 407 314 327 412 383 342 158 100 208 117 49 88 144 83 119 120 82 25 2 11 0 0 0 0 0 0 0 0 0 0 0 0
2926 3019 2943 2739 2450 1746 1117 1064 721 431 398 219 201 233 142 100 190 21 133 145 93 9 24 41 4 0 1 0 0 0 0 0 0 9 0 0 0 0 0 0 0 0 0

GFSMA_con_mlcape_021.txt.gz
CAPE
437 600 305 171 422 244 203 317 555 780 854 683 442 346 15 107 330 307 167 430 557 938 1220 1109 1638 1247 1233 1359 1362 1061 1385 1146 714 1015 556 988 800 386 283 513 546 550 452
511 293 270 482 627 612 283 530 695 585 410 139 128 189 210 19 106 444 338 214 373 495 952 892 1160 1409 1292 1613 1358 1411 1213 1005 550 618 869 1037 1007 955 482 514 861 952 914
704 433 329 768 767 781 696 497 548 522 10 0 8 6 6 6 58 336 248 335 468 384 540 888 850 885 946 1176 1572 1558 1376 1248 1087 777 913 1079 1089 976 991 645 836 871 868
813 610 749 869 539 894 719 600 668 490 66 1 4 0 0 13 17 38 151 241 347 403 208 331 604 574 670 882 836 1323 1586 1332 1160 1205 862 603 687 1144 1008 696 756 868 954
965 838 819 551 611 621 595 642 475 302 11 0 0 0 5 6 12 19 24 245 345 472 337 431 171 509 691 908 876 963 875 873 928 1104 1003 777 658 567 568 646 731 874 748
1027 939 812 635 571 736 635 505 394 0 0 0 0 0 6 0 30 30 15 155 353 534 474 324 501 455 450 912 895 723 899 984 707 816 786 938 802 743 781 791 773 728 682
897 919 572 766 574 708 654 356 92 0 0 0 0 0 5 0 5 0 45 130 230 421 367 399 436 583 620 676 619 584 646 761 780 809 591 552 708 794 795 738 610 704 672
990 943 597 734 827 877 483 204 1 0 0 0 0 0 0 0 0 0 16 39 34 128 83 0 449 606 322 217 266 100 298 785 852 730 653 678 750 847 798 730 718 756 736
1133 1053 762 708 850 670 435 87 3 0 0 0 0 0 0 0 0 0 3 19 17 20 5 2 68 183 56 0 0 0 0 0 0 0 0 16 63 127 219 265 313 374 492
761 857 866 849 698 566 335 149 1 0 0 0 0 0 0 0 0 0 0 0 0 0 0 0 1 24 28 0 0 0 0 0 0 0 0 0 0 0 0 0 0 0 0
655 799 837 855 398 406 491 149 4 0 0 0 0 0 0 0 0 0 0 0 0 0 0 0 0 0 29 14 0 0 0 0 0 0 0 0 0 0 0 0 0 0 0
1104 1037 894 843 518 103 113 44 0 0 0 0 0 0 0 0 0 0 0 0 0 0 0 0 0 0 1 33 10 0 0 0 0 0 0 0 0 0 0 0 0 0 0
1145 1202 1061 894 633 224 93 4 0 0 0 0 0 0 0 0 0 0 0 0 0 0 0 0 0 0 0 0 1 2 0 0 0 0 0 0 0 0 0 0 0 0 0
1003 1252 1213 1024 738 209 82 46 0 0 0 0 0 0 0 0 0 0 0 0 0 0 0 0 0 0 0 0 0 0 0 0 0 0 0 0 0 0 0 0 0 0 0
1121 1178 1196 1080 734 371 98 38 0 0 0 0 0 0 0 0 0 0 0 0 0 0 0 0 0 0 0 0 0 0 0 0 0 0 0 0 0 0 5 7 7 8 2
1038 998 1121 1071 691 406 176 51 2 0 1 0 0 0 0 0 0 0 0 0 0 0 0 0 0 0 0 0 0 0 0 0 0 0 0 0 0 0 13 19 18 14 16
1084 1119 1070 1022 676 468 256 135 59 0 0 0 0 0 0 0 0 0 0 0 0 0 0 0 0 0 0 0 0 0 0 0 0 0 0 0 0 0 0 12 18 14 0
1078 1141 1124 971 719 604 394 248 146 35 2 0 0 0 0 0 0 0 0 0 2 0 0 0 0 0 5 5 0 0 0 0 0 0 0 0 0 0 0 0 0 0 0
1168 1042 1034 1076 842 691 500 223 175 135 52 28 0 0 0 0 0 0 0 5 7 3 0 0 4 2 12 10 10 5 0 0 0 0 0 0 0 0 0 0 0 0 0
1134 1209 1151 1034 1014 848 633 414 261 203 114 108 18 4 0 0 0 0 2 10 5 3 2 23 31 29 18 17 17 12 6 0 0 0 0 0 0 0 0 0 0 0 0
1310 1141 1165 1154 1044 894 760 619 484 394 352 269 38 31 14 0 0 0 1 8 0 1 6 37 32 19 11 2 9 3 0 0 0 0 0 0 0 0 0 0 0 0 0
1408 1264 1176 1125 1137 1128 895 730 656 567 438 339 296 153 46 0 0 5 12 20 26 8 0 25 46 23 0 0 0 0 0 0 0 0 0 0 0 0 0 0 0 0 0
1621 1415 1353 1309 1181 1396 1137 1006 753 648 495 346 366 311 156 53 0 1 43 39 16 3 6 27 5 0 0 7 4 0 0 0 1 3 0 0 0 0 0 0 0 0 0
1825 1795 1528 1436 1431 1468 1280 1039 971 790 609 487 459 423 376 254 99 16 73 117 39 6 44 1 0 2 9 4 11 4 6 0 0 0 0 0 0 0 0 0 0 0 0
1952 1977 1822 1671 1688 1732 1544 1507 1116 839 702 684 560 587 363 319 226 111 283 180 21 36 37 29 1 33 67 17 1 0 0 0 0 0 0 0 0 0 0 0 0 0 0
2357 2117 2149 2093 2036 2069 1753 1621 1376 1077 886 992 912 484 368 350 308 225 323 176 10 23 35 2 0 0 0 0 0 0 0 0 0 0 0 0 0 0 0 0 0 0 0

GFSMA_con_mlcape_024.txt.gz
CAPE
279 576 560 172 297 309 204 275 558 714 871 608 364 53 8 21 72 156 152 317 501 793 1042 983 1684 1343 1075 1227 1346 1046 1102 975 936 1078 703 869 881 672 506 362 508 731 384
474 446 333 279 412 496 384 396 601 602 398 31 47 227 127 30 40 196 292 48 409 440 834 1147 894 1476 1238 1314 1293 1384 1183 1362 1057 841 915 908 822 796 605 461 679 855 861
616 568 235 292 651 664 664 329 553 635 0 0 2 7 0 16 26 121 298 221 269 356 436 616 833 668 1017 1327 1474 1359 1318 1259 1012 593 571 1132 1128 1091 1120 846 570 833 958
518 670 482 493 758 676 707 466 564 632 172 3 4 0 0 18 20 108 178 232 313 356 243 191 435 556 730 829 993 1549 1282 1152 1079 1275 1035 760 655 991 890 1028 853 700 728
614 607 601 682 637 648 599 589 476 268 21 0 2 0 2 5 20 18 26 85 161 398 293 232 173 356 660 855 1012 775 681 1020 1083 1169 1176 1027 927 766 602 695 636 567 732
715 752 740 732 432 616 506 424 362 13 0 0 0 0 0 4 10 23 25 71 315 507 464 443 486 438 340 826 930 756 618 568 695 864 855 830 926 834 787 730 718 688 618
733 840 725 687 484 503 588 393 124 0 0 0 0 0 0 0 0 0 41 176 302 432 335 323 437 494 700 534 453 422 656 764 718 565 567 585 645 603 606 589 527 556 490
775 831 693 647 523 561 548 301 64 0 0 0 0 0 0 0 0 0 33 41 82 183 191 6 405 674 468 300 313 66 238 845 866 724 623 576 619 646 650 654 525 494 493
801 818 685 653 600 672 622 326 56 0 0 0 0 0 0 0 0 0 2 12 26 26 9 11 93 262 108 0 0 0 0 0 0 0 0 0 0 49 115 133 120 130 212
775 822 878 790 641 703 480 285 29 0 0 0 0 0 0 0 0 0 0 0 0 0 0 0 20 45 43 0 0 0 0 0 0 0 0 0 0 0 0 0 0 0 0
617 883 991 840 727 691 471 201 75 0 0 0 0 0 0 0 0 0 0 0 0 0 0 0 0 16 47 33 5 0 0 0 0 0 0 0 0 0 0 0 0 0 0
575 675 695 690 701 518 365 265 131 0 0 0 0 0 0 0 0 0 0 0 0 0 0 0 0 0 0 43 27 6 0 0 0 0 0 0 0 0 0 0 0 0 0
697 809 771 764 751 481 284 160 60 0 0 0 0 0 0 0 0 0 0 0 0 0 0 0 0 0 0 1 39 36 8 0 0 0 0 0 0 0 0 0 0 0 0
763 925 997 972 811 605 364 121 4 0 0 0 0 0 0 0 0 0 0 0 0 0 0 0 0 0 0 0 0 3 27 0 0 0 0 0 0 0 0 0 0 0 0
647 844 844 952 880 680 504 203 49 17 0 0 0 0 0 0 0 0 0 0 0 0 0 0 0 0 0 0 0 0 0 0 0 0 0 0 0 0 1 7 4 0 0
673 702 735 1007 947 756 524 278 114 50 0 0 0 0 0 0 0 0 0 0 0 0 0 0 0 0 0 0 0 0 0 0 0 2 0 0 1 2 0 18 28 28 23
666 810 671 953 899 819 625 428 179 96 13 0 0 0 0 0 0 0 0 0 0 0 0 0 0 0 0 0 0 0 0 0 0 0 0 0 0 0 0 0 0 0 0
719 806 624 909 923 709 709 627 465 215 83 1 0 0 0 0 0 0 0 0 0 0 0 0 0 0 0 0 0 0 0 0 0 0 0 0 0 0 0 0 0 0 0
853 836 712 858 952 895 692 628 551 502 270 98 1 0 0 0 0 0 0 0 0 0 0 0 0 0 0 0 0 0 0 0 0 0 0 0 0 0 0 0 0 0 0
893 957 895 1029 1031 1014 824 680 579 630 496 272 93 5 12 0 0 0 0 0 0 5 2 0 0 0 0 4 0 2 3 0 0 0 0 0 0 0 0 0 0 0 0
982 1002 915 953 1047 956 935 846 662 678 611 433 218 80 53 10 2 0 0 0 0 0 1 0 1 0 8 0 0 0 0 0 0 0 0 0 0 0 0 0 0 0 0
1180 1087 1054 940 1067 1112 921 760 913 825 619 527 447 273 158 62 2 0 0 0 0 0 1 0 0 10 16 0 0 1 0 0 2 0 0 5 0 0 0 0 0 0 0
1217 1191 1176 1102 1001 1196 1024 893 845 934 909 716 590 430 331 229 113 42 1 0 0 0 12 29 11 8 2 0 1 0 0 2 5 3 0 0 0 0 0 0 0 0 0
1178 1243 1225 1211 1145 1107 997 890 843 984 988 862 741 619 644 564 343 198 115 8 0 3 19 16 22 3 0 0 0 0 0 0 1 8 0 0 0 0 0 0 0 0 0
1430 1398 1356 1288 1338 1283 936 825 806 970 977 1032 864 696 726 602 357 197 141 58 0 13 12 13 13 0 1 0 5 0 0 0 0 0 0 0 0 0 0 0 0 0 0
1707 1608 1514 1455 1481 1535 1058 915 935 1160 1181 1156 880 791 681 606 369 124 175 112 205 99 12 6 1 0 0 0 0 0 0 0 0 0 0 0 0 0 0 0 0 0 0

GFSMA_con_mlcape_027.txt.gz
CAPE
759 1133 1361 1004 868 1134 909 1025 705 1357 1256 798 525 301 278 436 530 574 525 244 427 676 793 973 1289 1441 988 1062 1137 624 1083 755 865 802 990 798 948 850 878 395 464 758 574
1015 1106 1095 986 969 1269 1281 1018 1249 1245 184 64 146 699 624 255 437 715 628 324 255 479 574 702 826 1366 1104 1295 1269 1293 1116 1225 1127 951 1145 759 837 803 600 426 541 816 794
1151 1306 1150 856 1183 1484 1403 1006 1143 1096 280 3 18 57 106 42 139 608 717 548 394 272 439 547 578 697 1237 1276 1319 1458 1276 1234 1340 1010 707 885 1103 1046 943 928 674 580 931
1081 1248 1201 1107 1359 1384 1377 1169 697 652 795 9 19 32 36 53 98 486 603 690 711 437 162 140 242 322 672 711 1163 1421 1183 705 1097 1172 1051 763 849 1102 1236 1075 946 969 877
997 1097 1271 1386 1486 1406 1387 1056 1127 861 228 6 27 25 39 49 35 89 208 539 741 743 547 135 177 200 655 906 655 552 823 948 909 903 1067 1073 997 787 734 836 936 812 666
1078 1194 1313 1426 1369 1095 1168 1103 942 397 0 3 0 0 14 87 153 141 208 428 954 1040 840 888 790 576 265 771 889 604 650 714 598 600 637 841 830 742 794 697 586 571 605
1182 1353 1337 1472 1340 1089 1232 1034 733 247 9 0 0 1 7 31 25 40 462 259 726 778 714 857 820 793 760 407 368 389 778 923 1007 763 793 706 651 606 568 561 538 429 481
1207 1427 1393 1436 1332 1177 1024 1074 546 102 4 0 2 4 1 0 2 1 305 204 385 151 37 47 865 1153 783 604 320 0 23 558 810 731 564 452 503 576 553 470 356 319 226
1307 1359 1506 1429 1372 1245 1298 1211 550 141 19 36 0 9 0 0 3 0 43 117 128 47 11 50 231 552 600 4 0 0 0 0 0 0 0 0 0 0 0 0 0 0 3
1299 1385 1540 1395 1311 1360 1326 1228 522 196 8 2 0 0 0 25 0 0 0 19 19 18 20 12 41 88 236 1 0 0 0 0 0 0 0 0 0 0 0 0 0 0 0
1230 1412 1557 1406 1402 1415 1374 1071 466 249 74 0 0 0 0 0 0 0 0 0 0 5 6 15 21 63 125 86 26 0 0 0 0 0 0 0 0 0 0 0 0 0 0
1141 1191 1544 1618 1714 1482 1366 1230 631 445 179 6 31 3 0 0 0 0 0 0 0 0 0 0 4 19 28 94 70 9 0 0 0 0 0 0 0 0 0 0 0 0 0
971 1154 1268 1411 1454 1257 1311 1133 736 495 244 42 0 51 43 0 0 0 0 0 0 0 0 0 0 10 14 27 67 44 17 0 0 0 0 0 0 0 0 0 0 0 0
962 1139 1287 1403 1384 1289 1219 956 776 498 169 96 26 0 33 37 0 0 0 0 0 0 0 0 0 0 11 0 5 5 45 6 0 0 0 0 0 0 0 0 0 0 0
1005 1256 1305 1418 1541 1481 1278 999 692 387 141 78 46 21 0 33 20 0 0 0 0 0 0 0 0 0 3 21 0 0 38 30 0 0 0 0 0 0 0 0 0 0 0
1067 1096 1365 1554 1556 1418 1349 1139 923 508 243 152 70 56 37 17 12 12 0 0 0 0 0 0 0 0 4 18 1 17 15 0 0 0 0 0 0 0 0 0 4 8 2
1117 1209 1341 1363 1475 1322 1353 1264 1146 745 434 370 126 47 48 22 2 3 0 0 0 0 0 0 0 9 1 0 1 36 30 58 41 0 0 0 0 0 0 0 0 0 0
1123 1215 1356 1382 1445 1348 1385 1293 1261 966 696 548 353 59 22 11 0 0 0 0 0 0 0 0 0 8 5 14 63 58 66 16 59 3 0 0 0 0 0 0 0 0 0
1140 1189 1344 1377 1426 1426 1361 1264 1339 1271 906 772 550 249 46 34 0 0 0 0 0 0 0 0 0 8 22 30 46 71 106 77 66 11 1 0 0 0 0 0 0 0 0
1158 1206 1329 1440 1460 1425 1369 1333 1262 1372 1188 948 780 508 287 107 28 0 0 0 2 0 2 0 0 0 21 75 91 77 52 21 8 12 16 1 0 0 0 0 0 0 0
1242 1277 1298 1419 1482 1376 1268 1354 1307 1428 1348 1138 993 784 531 323 127 48 2 41 62 22 5 11 0 0 1 27 12 51 36 21 15 18 26 68 87 37 34 0 0 0 0
1352 1455 1451 1442 1441 1397 1191 1078 1304 1431 1369 1311 1302 1143 789 345 132 21 1 5 90 83 28 40 36 45 119 3 15 16 22 35 12 7 29 138 309 264 241 156 10 0 0
1445 1410 1404 1453 1474 1526 993 754 824 1393 1448 1470 1480 1444 1128 626 321 209 35 0 0 0 8 233 206 267 113 5 16 22 31 20 83 208 172 187 310 244 36 2 0 0 0
1541 1518 1475 1475 1503 1584 1071 683 651 1251 1470 1509 1566 1550 1320 1001 715 517 530 250 53 5 0 1 268 427 36 73 10 49 100 208 230 207 300 78 0 0 0 0 0 0 0
1764 1732 1751 1659 1567 1642 1107 814 642 1084 1538 1581 1664 1554 1292 1160 856 432 608 538 239 197 89 2 26 5 5 1 5 97 52 46 7 10 3 0 0 0 0 0 0 0 0
1794 1828 1843 1782 1637 1690 1183 846 797 1309 1490 1596 1659 1446 907 1082 824 432 572 661 644 468 244 18 0 0 0 0 0 19 1 0 0 0 0 0 0 0 0 0 0 0 0

GFSMA_con_mlcape_030.txt.gz
CAPE
1417 1519 1591 1259 1368 1279 1109 1050 775 969 874 768 454 101 69 56 66 79 215 155 386 667 671 1047 1447 1110 1360 1334 1219 1062 869 269 712 996 1039 1045 809 987 836 445 382 668 752
1513 1439 1307 1204 1263 1376 1380 1008 919 938 515 279 517 320 40 63 30 43 100 213 249 609 680 835 1099 1425 1290 1224 1167 1178 1015 1168 1036 860 912 835 949 961 717 473 420 704 814
1717 2031 1343 1240 1236 1681 1155 1168 887 800 352 43 174 31 43 49 50 41 167 323 235 138 622 698 869 900 1354 1212 1452 1448 1338 1304 1163 1426 717 1264 776 1085 948 1091 940 692 774
1597 1943 1139 1063 1536 1489 1138 1207 791 536 204 48 27 33 28 60 70 65 134 327 186 313 118 302 368 671 696 1111 1330 1246 1363 1176 1077 895 1098 796 710 1133 1211 845 946 1104 1045
1330 1856 1620 1485 1959 1435 1315 989 855 729 87 48 44 40 18 46 21 36 43 148 242 154 247 41 139 225 594 903 750 754 853 775 825 780 815 881 997 948 764 731 854 833 751
1268 1857 1597 1266 1210 1255 1136 1064 687 568 185 27 9 1 31 47 57 47 27 43 227 215 248 482 478 251 295 861 733 618 708 849 881 780 740 676 773 786 788 628 649 597 545
1780 2107 1601 1354 1633 1279 1064 1037 883 694 86 48 0 14 26 33 32 36 41 31 39 46 32 86 181 289 314 266 329 279 581 809 1074 944 892 710 785 728 651 606 542 525 554
1977 2084 1800 1426 1579 1384 1449 1486 945 341 87 0 9 23 20 17 18 32 30 24 10 15 0 0 425 433 352 592 203 0 202 811 940 786 426 246 279 347 307 262 255 332 191
1982 2260 1629 1094 1682 1514 1262 1644 1287 728 49 0 43 30 6 17 15 6 35 29 12 16 3 0 2 134 119 0 0 0 0 0 0 0 0 0 0 0 0 0 0 0 2
1854 1988 1943 1772 2213 1599 1602 1631 1414 831 494 0 0 0 33 150 12 18 2 15 6 12 1 4 12 1 0 9 0 0 0 0 0 0 0 0 0 0 0 0 0 0 0
1861 1716 2020 2206 2205 2010 1767 2132 1564 1234 578 4 0 0 0 0 0 2 26 17 16 15 11 0 24 34 18 22 15 0 0 0 0 0 0 0 0 0 0 0 0 0 0
1422 1691 1806 2161 2207 2072 2068 2162 1913 1394 979 186 0 5 0 0 0 0 1 0 14 24 18 6 5 20 35 48 33 1 0 0 0 0 0 0 0 0 0 0 0 0 0
736 1186 1872 2001 1961 2368 2083 2140 2168 1432 1366 626 82 4 0 0 0 0 0 0 0 5 0 1 6 2 9 12 31 2 0 0 0 0 0 0 0 0 0 0 0 0 0
927 994 1598 1806 1958 1971 2183 2093 2082 1687 1136 954 338 38 1 15 16 0 0 0 0 0 0 0 0 2 0 0 0 0 0 15 0 0 0 0 0 0 0 0 0 0 0
1147 1252 1393 1845 1817 1965 2100 2177 1904 1770 899 911 275 291 37 4 39 4 0 0 0 0 4 2 0 0 0 0 0 62 97 119 35 0 0 0 0 0 0 0 0 0 0
1595 1265 1575 1676 1774 1979 2256 2307 1845 1768 1473 832 318 82 175 0 21 22 0 0 0 0 0 3 0 1 0 0 12 35 78 55 0 0 0 0 0 0 0 0 0 0 0
1942 1871 1781 1787 1677 2069 2296 2413 2100 1717 1767 1316 795 253 283 141 9 0 6 2 0 0 0 1 0 13 123 88 0 0 15 8 10 0 0 0 0 0 0 0 0 0 0
2015 2163 2070 2030 1864 1820 2062 2239 2254 1711 1872 1628 1402 949 382 242 282 49 15 27 0 0 0 0 0 36 102 123 112 219 54 0 2 4 0 0 0 0 0 0 0 0 0
2172 1873 2175 2280 2113 1954 2015 2103 2199 2229 1970 1938 1705 1445 936 300 293 38 59 0 0 0 12 0 0 25 10 100 181 282 201 166 64 1 0 0 0 0 0 0 0 0 0
2279 2227 2198 2534 2375 2165 2035 1982 2011 2144 2175 2011 2018 1778 1356 901 479 425 158 94 7 0 1 0 0 0 24 36 19 0 172 221 46 45 7 0 0 0 0 0 0 0 0
2308 2367 2352 2433 2581 2194 1965 2181 2104 2012 2236 2140 2104 2068 1766 1404 842 725 532 269 140 170 0 11 31 8 12 16 129 28 0 0 114 119 83 61 21 43 101 0 1 6 0
2386 2417 2313 2494 2461 2219 1811 1559 2053 1973 2348 2288 2242 2193 1994 1323 919 456 324 223 334 344 226 23 68 44 105 197 206 55 2 16 16 158 162 147 185 257 258 215 105 3 0
2502 2432 2407 2431 2527 2553 1733 1419 1396 1786 2266 2279 2322 2398 2206 1931 1289 1094 274 85 42 115 187 297 201 169 155 366 431 291 211 125 109 154 420 235 145 165 144 52 0 0 0
2526 2673 2626 2605 2598 2735 2137 1337 1210 1556 2218 2295 2335 2493 2513 2310 1933 1460 1273 474 197 204 103 54 185 403 497 576 635 301 355 197 190 209 272 159 51 3 1 0 0 0 0
2594 2637 2565 2730 2855 2814 2246 1616 1277 1566 1723 2427 2353 2436 2565 2574 2354 1275 1409 1181 971 769 333 75 49 159 354 204 170 190 63 68 69 28 46 4 0 1 0 0 0 0 0
2554 2475 2542 2696 2765 2912 2581 1677 1457 1707 1796 1860 2436 2561 1983 2352 2088 1265 1213 1370 1339 1327 818 203 46 33 1 3 0 13 36 25 18 0 9 0 0 0 0 0 0 0 0

GFSMA_con_mlcape_033.txt.gz
CAPE
1154 1268 1240 1159 1141 1078 1144 960 795 815 722 306 567 573 42 1 34 330 39 54 376 624 1020 1275 1232 1157 1251 1307 1179 1130 575 308 891 1133 1166 1106 919 944 868 568 413 524 815
1230 1227 1067 1087 897 1314 963 1027 1023 854 673 281 41 178 28 47 5 97 167 126 186 471 797 874 1375 1385 1183 1311 1365 1059 1048 1010 712 807 994 988 1019 885 777 625 417 573 836
1617 1586 1285 954 1127 1522 1303 1174 1104 1060 180 69 25 6 10 20 16 1 375 195 119 417 482 889 1007 1367 1525 1245 1381 1326 1309 1302 1274 1368 1322 941 1003 978 1010 982 1083 826 646
1894 1967 1418 977 1395 1316 716 879 409 249 235 20 29 32 36 15 41 0 78 271 331 140 468 424 737 1019 1010 1104 1417 1401 1487 1368 1379 1342 1047 966 762 924 1396 1151 721 816 1119
1468 2037 1094 982 1602 1295 789 389 442 258 16 27 24 38 29 9 27 22 7 9 173 261 156 148 127 394 831 962 1026 1044 1193 1262 1356 1073 998 959 1063 1072 1057 768 668 881 918
1404 1923 1576 1622 1293 1292 957 963 675 91 97 4 15 1 33 44 39 48 11 93 38 10 205 479 211 201 813 1057 1004 777 809 942 998 907 724 680 683 952 872 777 742 723 588
1451 1896 1779 1870 1341 1458 1302 1003 884 404 148 3 3 13 24 17 22 30 39 34 29 9 4 31 501 353 130 402 398 532 938 1055 1214 1221 842 792 802 739 752 686 662 604 726
1598 2019 1889 1462 1625 1200 1331 1573 935 645 8 0 55 19 18 10 23 31 20 12 18 13 4 6 18 543 396 434 203 34 611 1218 1245 837 363 237 300 396 387 278 244 397 358
1704 2297 1979 1313 1701 1736 1435 1725 1161 430 133 0 24 65 24 13 3 0 5 21 1 5 1 0 9 19 125 0 0 0 0 0 0 0 0 0 0 0 0 0 0 0 0
1680 1984 1425 1359 1828 1400 1429 1770 1327 953 189 0 0 0 108 214 101 6 7 8 10 5 0 23 11 0 8 3 0 0 0 0 0 0 0 0 0 0 0 0 0 0 0
1822 1520 2001 1494 1821 2098 1499 1437 1745 1470 523 66 0 0 0 0 0 20 7 11 0 8 26 0 51 30 13 24 0 0 0 0 0 0 0 0 0 0 0 0 0 0 0
1697 2011 1788 2285 2041 2161 1691 2126 2162 1891 1305 183 0 0 0 0 2 0 4 14 19 14 13 19 5 14 31 31 24 0 0 0 0 0 0 0 0 0 0 0 0 0 0
611 1507 1952 1914 1894 2441 2001 2001 2549 2028 1722 1005 206 19 0 10 0 0 0 0 0 13 9 0 11 6 5 12 28 0 0 0 0 0 0 0 0 0 0 0 0 0 0
574 906 2171 2019 2096 2182 2280 2351 2375 2192 1667 1488 828 45 63 46 42 20 0 0 2 0 0 0 2 4 6 2 7 0 4 0 0 0 0 0 0 0 0 0 0 0 0
783 1261 1946 2240 2142 2156 2290 2390 2029 2438 1704 1545 988 594 107 8 39 28 0 0 0 0 19 24 0 0 0 7 1 1 12 29 1 0 0 0 0 0 0 0 0 0 0
1782 1842 1499 1815 2155 2228 2318 2530 2012 2226 2126 1234 542 503 423 8 5 33 0 0 0 0 0 8 2 1 0 0 27 0 21 79 34 2 0 0 0 0 0 0 0 0 0
2647 1846 2288 2029 2171 2305 2388 2693 2295 2011 2268 1983 1077 755 534 414 26 10 18 2 0 0 0 0 2 24 27 35 25 12 22 45 0 0 0 0 0 0 0 0 0 0 0
2655 2833 2499 2554 2424 2407 2443 2653 2622 1496 2244 2238 1965 1232 749 467 421 164 48 49 22 31 2 26 0 117 155 185 213 202 83 6 43 12 0 0 0 0 0 0 0 0 0
2950 2773 2825 2906 2746 2482 2428 2872 2850 2582 2311 2340 2251 2093 1581 991 677 182 73 29 39 64 57 27 0 20 52 251 318 392 353 261 184 14 0 0 0 0 0 0 0 0 0
3028 2955 2827 2990 3012 2912 2645 2750 2819 2811 2664 2550 2494 2449 2246 1719 985 838 513 205 180 91 64 45 27 2 2 109 147 47 148 323 306 31 14 7 5 0 0 0 0 0 0
3143 3089 2989 2995 3330 3180 2643 2712 2556 2753 2794 2828 2649 2706 2601 2257 1508 1118 762 637 381 159 4 34 124 132 30 32 155 164 131 29 77 0 155 59 134 61 45 9 18 3 0
3252 3215 3110 3072 3062 3159 2536 2171 2695 2766 2815 2938 2857 2819 2580 2202 1651 1134 808 964 906 662 554 572 281 202 426 275 157 133 132 35 67 94 39 217 149 152 87 57 54 0 0
3347 3230 3193 3321 3211 3258 2626 1942 1894 2694 2884 2754 2902 2928 2854 2193 2095 1718 861 696 542 561 653 938 750 593 541 454 426 248 308 222 194 264 175 178 80 59 8 0 0 0 0
3452 3461 3476 3458 3409 3454 3034 2135 1710 2101 2649 2750 2841 3015 3016 2348 2469 2153 1876 981 728 517 332 336 733 911 737 662 668 600 329 470 440 298 222 68 20 4 0 0 0 0 0
3547 3510 3570 3598 3569 3477 3107 2644 1928 2003 2314 2524 2684 2951 3013 3006 2848 1955 2182 2068 1437 912 454 288 150 318 330 310 426 372 201 241 153 77 227 40 10 0 0 0 0 0 0
3567 3421 3480 3608 3636 3659 3386 2717 2304 2398 2263 2500 2613 2809 2652 2929 2947 2139 2137 2308 2066 1496 917 425 212 106 63 80 146 215 137 106 91 47 51 19 1 0 0 0 0 0 0

GFSMA_con_mlcape_036.txt.gz
CAPE
1064 752 1290 656 813 869 728 893 1142 890 691 266 497 330 24 31 178 30 88 137 329 1148 1021 1343 1221 1225 1191 1308 992 935 326 764 1205 1147 1197 1066 987 956 801 599 386 417 830
1193 1459 1426 886 1164 928 523 1149 1287 910 393 313 55 41 31 39 95 141 48 225 342 684 1146 1412 1403 1364 1344 1434 1420 1095 1232 495 517 905 851 1056 1169 936 933 787 475 386 699
1581 1061 1438 1085 1129 1431 1392 1203 167 547 149 37 11 27 23 25 52 76 101 52 299 653 906 957 1354 1455 1376 1311 1427 1446 1256 1213 1313 1375 1266 874 1126 966 1165 1153 1105 1147 716
2012 2168 1462 1093 447 997 1241 529 1152 434 105 181 10 37 23 24 3 189 147 319 286 287 474 906 942 1057 961 1436 1377 1408 1525 1439 1463 1311 1276 1208 878 910 1008 1356 1147 901 1020
1610 1929 1134 681 1565 1403 1204 767 620 563 206 28 11 46 39 13 31 50 103 343 304 217 235 339 635 692 1058 1117 1032 1217 1302 1448 1274 1219 1153 1128 1099 1095 1012 861 834 875 862
1387 1652 1394 999 1493 1347 719 428 576 81 58 9 4 31 37 44 33 32 19 81 320 244 66 114 262 334 806 1120 927 896 943 1069 1123 997 971 909 815 843 906 877 783 751 614
1378 1665 1238 1064 1320 1171 1311 770 756 219 217 0 0 13 10 0 14 10 42 43 101 157 92 481 535 166 655 677 609 658 865 1048 1231 1291 801 759 714 716 748 699 660 614 656
1547 1633 1585 1504 1557 913 1224 1126 1144 595 68 0 19 29 9 3 14 21 7 8 35 17 0 419 368 431 174 238 79 224 854 1277 974 649 358 262 284 333 278 135 89 188 252
1426 1699 1447 1506 1478 1476 1237 847 647 776 76 0 30 155 40 1 7 11 0 0 0 0 0 59 305 419 209 1 0 0 42 23 0 0 0 0 0 0 0 0 0 0 0
1556 1974 1516 1895 1467 1454 1286 1435 1365 1098 188 0 0 2 32 132 0 1 13 0 14 0 0 2 0 47 33 0 0 0 0 0 0 0 0 0 0 0 0 0 0 0 0
1677 2050 1846 1677 1619 1570 1385 1409 1740 845 809 225 0 0 0 0 0 18 6 14 5 2 0 7 11 2 12 0 0 0 0 0 0 0 0 0 0 0 0 0 0 0 0
1761 2017 2197 1678 1692 1902 1874 1356 1700 1806 1373 595 95 14 0 0 2 0 27 11 6 6 13 0 2 1 23 6 0 0 0 0 0 0 0 0 0 0 0 0 0 0 0
1762 2010 1988 2232 1830 1565 2071 2255 1855 2208 1253 1271 280 107 78 49 8 7 0 25 11 5 6 10 0 0 30 77 7 0 0 0 0 0 0 0 0 0 0 0 0 0 0
1079 1823 1595 2189 1998 1792 1955 2337 2610 2243 2201 1315 1356 88 145 132 28 6 0 19 12 1 0 0 0 7 0 0 0 0 0 0 0 0 0 0 0 0 0 0 0 0 0
1297 1250 1859 2164 1903 2217 2435 2303 2205 2618 2188 1941 1398 837 83 191 95 59 18 0 0 7 53 6 0 0 22 0 0 0 2 0 0 0 0 0 0 0 0 0 0 0 0
939 1677 2163 2067 2318 2146 2696 2413 2566 2162 2219 2180 1623 1196 240 47 35 93 34 16 0 0 0 57 9 35 0 21 0 4 9 27 0 0 0 0 0 0 0 0 0 0 0
2530 1368 2776 2324 2334 2510 2453 2669 2330 2241 2422 2145 1626 1063 787 175 100 124 38 37 42 10 0 0 115 108 20 0 0 0 0 14 9 0 0 0 0 0 0 0 0 0 0
2111 2995 2133 2273 2639 2360 2545 2581 2655 1984 2460 2386 1873 1136 1248 764 167 252 543 50 27 74 71 70 51 195 118 57 31 140 0 1 66 103 2 0 0 0 0 0 0 0 0
3018 2571 3077 2722 2319 2481 2420 2697 2715 2684 1720 2737 2584 1953 1344 1166 690 98 169 210 144 155 262 95 112 182 365 494 220 119 196 152 88 23 0 0 2 0 0 0 0 0 0
2809 2836 2858 2901 3117 2758 2710 2663 2778 2996 2710 2153 2856 2658 2253 1673 1075 796 177 47 236 317 87 116 169 93 92 392 377 277 274 308 216 188 3 0 1 0 0 0 0 0 0
2813 2973 2996 3022 2985 3183 2939 2762 2725 3002 3027 2578 2344 2912 2695 2495 1903 1344 1024 627 224 155 451 183 109 165 150 181 277 219 120 79 205 240 67 7 9 8 2 7 6 17 8
3295 3180 3289 3181 3049 3178 3120 2763 2754 2883 3138 2919 2803 2685 2891 2627 2400 1830 1302 968 729 208 76 76 182 270 265 239 378 187 121 115 75 78 11 26 184 197 121 184 108 16 2
3508 3431 3449 3413 3164 3199 3073 2766 2492 2788 2862 2898 2874 2850 2896 2868 2563 2230 1488 1115 748 756 463 294 378 597 664 566 497 312 243 252 192 140 54 34 114 58 148 1 0 0 0
3608 3594 3647 3591 3483 3403 3095 2741 2517 2527 2760 2828 2862 2882 2898 2835 2837 2564 1996 1303 1058 850 751 702 861 850 969 732 676 621 336 294 325 341 279 109 43 59 3 0 0 0 0
3730 3864 3780 3789 3678 3530 3282 2882 2528 2539 2512 2594 2904 3027 2974 2945 2860 2434 2377 1847 1384 1209 802 552 508 968 1052 740 818 539 413 275 279 221 266 168 35 19 0 0 0 0 0
3946 3886 3902 3820 3828 3692 3527 3051 2680 2823 2528 2443 2557 2958 2843 2954 2906 2445 2388 2343 1951 1495 1172 812 336 229 166 205 265 568 390 283 181 132 142 106 45 0 0 0 0 0 0

GFSMA_con_mlcape_039.txt.gz
CAPE
583 554 917 683 673 483 464 827 792 872 211 191 45 35 178 58 39 62 503 1054 1047 1168 1598 1177 1102 959 829 676 604 468 903 1076 1172 1188 1216 1100 1148 987 661 588 403 393 732
879 891 1176 1041 765 621 327 779 951 475 310 90 30 60 71 54 23 18 25 299 1012 1083 1101 1492 1217 1267 1302 1461 1275 1186 805 346 649 1046 820 1140 1179 896 991 899 713 486 619
922 941 749 1027 770 834 750 981 57 302 97 58 29 22 35 61 50 9 17 122 465 882 1047 1407 1429 1323 1394 1459 1572 1475 1337 1196 1107 1088 967 964 986 1063 1132 1123 1006 926 993
1525 1000 928 830 934 1257 1236 960 797 192 129 62 57 41 39 41 39 103 104 23 63 339 699 964 1194 1091 1112 1394 1672 1592 1547 1387 1457 1486 1163 1248 1061 1063 808 1003 1129 983 883
1566 1357 767 670 858 1179 812 341 852 427 208 93 31 42 38 38 46 119 62 145 146 105 175 633 743 827 968 1189 1351 1074 1326 1341 1249 1152 1082 1062 976 979 976 893 750 667 645
1193 1141 1019 555 1112 871 648 316 86 40 25 4 19 35 17 20 41 128 145 249 135 111 77 145 287 478 711 1095 1084 973 1035 1060 1129 973 754 885 881 794 834 819 830 720 641
1148 1095 1030 853 1020 969 735 424 77 25 15 0 0 22 29 28 29 26 68 157 95 107 16 0 77 215 691 946 685 670 769 942 1079 1091 745 693 655 732 758 668 598 604 679
1194 1234 941 1007 1189 1090 1038 950 734 129 46 0 11 31 5 4 7 20 26 37 23 39 29 107 195 151 447 317 147 336 669 1086 833 592 437 244 202 167 88 11 0 0 0
1348 1219 1207 1187 1345 915 727 624 796 492 0 0 0 65 17 1 1 11 3 12 13 2 2 332 278 153 135 25 0 17 233 262 0 0 0 0 0 0 0 0 0 0 0
760 1106 1457 975 1212 1180 1027 662 650 576 0 0 0 9 32 22 0 0 0 0 0 0 0 121 210 103 51 0 0 0 0 0 0 0 0 0 0 0 0 0 0 0 0
520 1342 1439 1246 1211 1577 1162 789 1558 674 190 7 0 0 0 0 0 0 0 1 0 0 0 0 18 45 0 0 0 0 0 0 0 0 0 0 0 0 0 0 0 0 0
568 1035 1822 1470 1342 1325 1165 1202 1339 854 682 333 16 0 0 0 0 0 0 2 0 0 0 0 0 0 0 0 0 0 0 0 0 0 0 0 0 0 0 0 0 0 0
923 1126 1880 1615 1474 1293 1467 1209 1198 1416 570 557 410 2 16 0 0 0 0 0 0 0 0 0 0 0 0 0 0 0 0 0 0 0 0 0 0 0 0 0 0 0 0
1135 1160 1600 1755 1490 1310 1284 1698 1611 1449 1286 439 638 63 12 51 30 0 0 0 0 0 0 4 6 0 0 0 0 0 0 0 0 0 0 0 0 0 0 0 0 0 0
991 1215 1417 1868 1771 1487 1118 1503 2253 1649 1920 1523 438 449 82 38 87 35 3 0 0 0 11 2 0 7 0 0 0 0 0 0 0 0 0 0 0 0 0 0 0 0 0
426 1301 1449 1740 1795 1587 1380 1228 2146 2155 1799 1922 1506 828 161 90 68 78 53 6 0 0 0 29 0 8 36 2 0 0 0 0 0 0 0 0 0 0 0 0 0 0 0
1353 583 1363 1792 1662 1728 1700 1578 1599 2080 2104 2073 1859 1485 949 159 7 28 97 40 26 0 0 0 18 35 28 14 2 0 1 53 0 0 0 0 0 0 0 0 0 0 0
1104 1928 1688 1770 1989 1771 1716 2109 2012 1896 1857 1747 2036 1615 1240 825 184 0 171 59 19 43 11 0 64 150 17 0 0 4 3 0 0 2 0 0 0 0 0 0 0 0 0
1744 1311 2232 2186 2073 2110 2051 1936 1946 1866 1813 2090 1933 1802 1399 1032 488 248 18 281 215 24 114 81 35 245 94 86 79 48 7 0 4 68 32 0 0 0 0 0 0 0 0
1898 2194 1819 2350 2405 2157 2069 2182 2066 1945 1982 1656 2117 2297 1910 1399 1086 711 390 43 230 315 149 179 67 40 86 296 147 98 87 138 77 111 43 4 0 0 0 0 0 0 0
2231 2210 2348 2396 2448 2455 2373 2196 2173 2126 2048 2000 1649 2031 2343 2057 1592 1173 823 421 38 127 290 72 59 86 37 82 247 238 143 142 161 132 112 10 0 0 0 0 0 1 6
2026 2259 2440 2311 2545 2684 2633 2293 2300 2310 2285 2195 2040 1815 2161 2421 2231 1783 1324 1054 687 149 6 260 49 29 25 57 173 228 223 135 136 103 90 103 0 0 0 0 1 3 0
2834 2496 2238 2578 2433 2657 2635 2569 2473 2505 2440 2489 2409 2378 2026 2263 2443 2401 1823 1511 1218 1029 361 16 131 113 48 50 79 170 166 85 50 25 24 14 35 23 15 1 6 0 0
2930 3036 3011 2734 2831 2834 2648 2473 2493 2750 2626 2548 2767 2716 2598 2446 2417 2484 2487 2033 1595 1296 1053 536 80 32 121 163 202 210 196 110 96 48 7 42 41 32 5 0 0 0 0
3061 3099 3306 3264 3136 3092 2873 2637 2389 2681 2771 2714 2721 2819 2923 2806 2695 2413 2594 2378 2046 1628 1082 857 523 278 243 503 619 544 216 142 103 117 131 44 26 34 15 0 0 0 0
3161 3246 3212 3434 3389 3315 3183 2751 2642 2765 2765 2745 2698 2626 2635 2806 2766 2461 2579 2565 2321 1974 1578 1158 622 486 664 568 535 381 216 137 97 100 74 86 42 54 12 0 0 0 0

GFSMA_con_mlcape_042.txt.gz
CAPE
255 343 555 671 543 529 344 621 633 578 370 26 44 542 590 279 194 387 798 1339 1475 1251 1276 970 526 384 592 953 1200 1244 1343 1164 1262 1255 1145 1161 1004 877 540 526 335 310 516
494 523 615 431 518 400 362 462 526 412 197 43 39 112 187 117 24 127 565 1041 1155 1643 1528 1194 1170 1084 1146 995 956 878 547 922 1180 1237 920 1120 1121 950 992 855 749 565 484
675 503 716 702 486 519 339 434 404 221 27 32 42 45 50 16 11 34 108 208 1006 1094 1370 1649 1323 1365 1392 1603 1532 1274 1274 734 504 719 751 826 702 980 936 1103 1083 1014 781
685 741 719 695 622 831 829 732 410 83 40 43 52 29 31 39 11 25 18 0 286 831 1278 1366 1200 1131 1265 1394 1475 1539 1515 1357 1370 1464 1350 1267 1071 886 954 794 686 757 913
1071 411 581 719 624 772 775 392 623 217 77 71 51 33 49 49 44 58 38 12 12 351 638 610 562 751 824 1071 1273 1146 1229 1313 1106 1081 1058 781 830 842 798 673 636 672 559
1223 770 567 377 684 816 718 432 165 37 70 38 33 38 33 47 46 53 50 44 32 51 92 245 370 547 503 1068 973 1034 798 738 542 612 763 719 752 749 678 690 628 536 487
796 983 783 612 885 785 689 127 22 32 0 0 25 19 17 22 24 46 53 126 79 71 36 46 128 161 436 582 675 572 643 755 775 759 610 554 558 592 591 528 478 502 491
687 679 615 694 713 865 787 487 393 28 1 0 12 0 0 0 0 26 36 100 21 63 37 24 36 56 389 429 175 197 256 766 824 511 330 185 102 64 22 0 0 0 0
797 878 624 604 848 941 819 589 556 156 0 0 8 4 0 0 0 3 15 61 20 15 11 63 96 63 160 31 6 0 68 237 96 0 0 0 0 0 0 0 0 0 0
936 1053 876 675 1158 1006 791 593 407 391 0 0 0 9 23 0 0 0 0 0 3 1 0 109 147 74 45 0 0 0 0 0 0 0 0 0 0 0 0 0 0 0 0
943 1021 903 1051 880 1176 831 700 384 567 0 0 0 0 0 0 0 0 0 0 0 0 0 12 101 54 21 0 0 0 0 0 0 0 0 0 0 0 0 0 0 0 0
663 786 849 1011 1031 982 1111 911 879 831 399 0 0 0 0 0 0 0 0 0 0 0 0 3 26 37 0 0 0 0 0 0 0 0 0 0 0 0 0 0 0 0 10
302 592 863 1095 1248 1180 1079 807 969 1114 480 229 34 0 0 0 0 0 0 0 0 0 1 0 0 8 0 0 0 0 0 0 0 0 0 0 0 0 0 0 0 0 0
221 345 639 1155 1547 1339 1142 1031 1141 1088 996 506 294 53 23 35 14 0 0 0 0 1 3 15 0 0 0 0 0 0 0 0 0 0 0 0 0 0 0 0 0 0 0
503 501 689 958 1499 1426 1216 1186 1120 1218 1254 715 320 380 67 25 48 69 0 1 0 0 5 32 12 6 1 0 0 0 0 0 0 0 0 0 0 0 0 0 0 0 0
508 774 876 1170 1361 1446 1302 1241 1386 1371 1506 1465 1103 325 257 105 51 60 63 1 0 0 0 0 33 0 0 0 2 0 0 0 0 0 0 0 0 0 0 0 0 0 0
615 673 1005 1147 1353 1407 1429 1292 1144 1516 1678 1591 1582 1386 610 68 36 44 43 31 13 0 0 0 1 5 11 4 1 21 0 0 0 0 0 0 0 0 0 0 0 0 0
695 895 974 1290 1484 1557 1543 1430 1176 1211 1672 1652 1691 1631 1550 1236 537 12 22 38 51 0 0 0 0 53 27 31 13 5 0 0 0 0 0 0 0 0 0 0 0 0 0
782 911 1392 1098 1129 1394 1656 1626 1447 1270 1315 1570 1763 1709 1567 1571 1323 804 35 0 34 82 0 0 0 20 99 44 28 11 0 1 23 17 12 5 7 5 0 0 0 0 0
999 713 1313 1490 1810 1665 1596 1620 1656 1535 1451 1594 1623 1658 1546 1499 1510 1341 915 274 6 17 161 68 19 36 67 83 8 11 28 22 21 28 48 71 48 17 0 0 0 0 0
1749 1274 1029 1547 1718 1930 2024 1845 1701 1577 1649 1711 1648 1723 1784 1697 1641 1572 1420 1155 624 227 27 133 155 41 29 97 80 19 26 29 48 27 33 17 11 15 1 0 0 0 0
1304 1717 1766 1680 1620 1997 2071 2036 2075 1902 1789 1778 1696 1664 1613 1744 1675 1562 1513 1542 1248 1070 649 128 77 118 91 30 57 61 52 23 41 28 47 41 8 23 0 0 0 0 0
1700 1239 1434 1789 1762 2075 2171 2049 2041 2184 2138 2071 1991 1938 1916 1857 1807 1793 1383 1409 1525 1361 1279 707 382 131 22 11 3 24 59 57 50 50 52 51 15 17 9 0 2 0 0
2247 2002 1584 1627 1784 1923 1999 2035 2104 2308 2279 2232 2254 2236 2201 2210 2084 2035 2063 1754 1428 1451 1216 1039 791 467 163 45 5 2 9 43 35 20 10 23 4 15 0 21 4 7 0
2351 2434 2413 2213 1930 2015 2048 1952 1942 2222 2322 2492 2464 2420 2476 2497 2443 2079 2181 2229 2077 1722 1422 1155 1268 1079 396 58 31 5 31 16 14 31 0 11 10 21 1 1 0 0 0
2587 2579 2610 2728 2735 2625 2380 2207 2108 2378 2364 2412 2594 2681 2460 2538 2625 2395 2371 2346 2391 2367 2055 1707 1173 897 704 317 67 61 77 39 25 37 5 3 5 15 8 0 0 0 0

GFSMA_con_mlcape_045.txt.gz
CAPE
328 493 442 322 518 538 317 460 424 523 102 50 262 470 343 300 119 311 878 1088 776 1136 635 369 493 772 951 1190 1189 1415 1270 1216 1147 1148 1031 1051 896 755 433 520 399 242 427
286 324 395 446 485 400 253 291 488 307 36 38 69 501 236 285 197 220 716 1269 1061 1122 1239 885 648 539 723 753 806 610 1008 1126 1208 1135 960 1045 1000 855 841 929 803 724 827
469 503 506 497 449 408 312 181 77 94 32 23 57 83 129 98 41 70 352 555 1150 1038 1138 1186 1120 1061 1263 1252 1099 1108 924 385 341 470 579 533 674 699 851 907 815 747 877
510 403 584 647 449 447 521 449 320 81 38 30 38 39 41 26 8 24 192 382 783 925 1175 1311 1107 1086 1300 1324 1383 1241 1204 1163 1002 1210 1191 993 930 911 902 769 711 652 580
569 540 706 781 625 667 285 527 475 100 76 61 24 21 31 33 7 43 35 28 173 439 677 792 727 599 895 878 798 624 883 1316 1094 891 892 800 693 720 757 652 625 583 572
848 361 508 599 518 569 439 259 224 63 79 44 22 25 34 45 32 65 52 31 29 131 238 312 396 363 460 870 941 846 752 608 546 549 547 492 503 507 457 325 362 387 405
1031 473 376 356 630 552 482 152 32 8 17 15 21 14 12 17 33 60 62 90 60 20 28 78 123 139 230 581 537 532 593 669 639 562 482 356 366 404 373 272 185 126 79
1109 883 471 572 676 638 516 263 15 4 0 0 15 2 2 0 4 18 49 99 84 57 41 12 30 32 94 254 213 180 142 384 662 351 158 21 0 0 0 0 0 0 0
616 733 435 514 708 707 548 442 312 0 0 0 0 0 0 0 0 0 15 34 86 53 47 0 13 24 94 90 31 13 6 121 136 9 0 0 0 0 0 0 0 0 0
538 670 597 336 702 626 496 634 484 254 0 0 0 19 0 0 0 0 0 1 25 17 6 20 35 55 55 18 0 0 0 0 0 0 0 0 0 0 0 0 0 0 0
551 651 780 633 462 879 794 703 382 210 0 0 0 0 0 0 0 0 0 0 0 0 0 0 46 82 44 11 0 0 0 0 0 0 0 0 0 0 0 0 0 0 0
429 623 807 753 749 714 876 743 548 136 106 0 0 0 0 0 0 0 0 0 0 0 0 0 1 88 40 15 0 0 0 0 0 0 0 0 0 0 0 0 0 0 0
325 485 724 829 818 818 854 825 755 640 518 92 0 0 0 0 0 0 0 0 0 0 0 0 0 43 90 4 0 0 0 0 0 0 0 0 0 0 0 0 0 0 0
264 320 614 747 681 892 1041 853 748 750 780 496 208 10 7 0 0 0 0 0 0 0 0 0 0 8 28 32 0 0 0 0 0 0 0 0 0 0 0 0 0 0 0
268 170 287 570 701 894 1201 1102 832 862 1011 836 489 335 68 31 43 27 0 0 0 0 0 6 13 0 0 16 9 0 0 0 0 0 0 0 0 0 0 0 0 0 0
264 247 198 297 485 718 1159 1312 1003 888 1062 1120 898 430 360 215 41 35 81 20 0 0 4 0 12 8 2 0 0 2 0 0 0 0 0 0 0 0 0 0 0 0 0
305 412 356 475 619 634 909 1271 1260 1161 998 1099 1245 1131 729 335 261 145 30 48 49 4 3 0 0 0 0 0 1 19 0 0 0 0 0 0 0 0 0 0 0 0 0
320 336 505 576 787 877 895 1112 1218 1313 1292 1143 1342 1461 1215 1257 777 291 42 36 32 15 24 28 0 0 0 0 0 0 0 0 0 0 0 0 0 0 0 0 0 0 0
542 556 698 843 740 969 1116 1110 1142 1272 1303 1311 1220 1379 1443 1385 1098 1198 1012 530 11 0 0 5 10 0 0 0 0 0 0 0 0 0 0 0 0 0 0 0 0 0 0
741 747 696 701 1054 1069 1143 1271 1295 1358 1394 1419 1386 1334 1424 1451 1364 1219 1125 1099 954 394 0 0 0 4 11 10 0 0 0 0 0 0 0 0 0 0 0 0 0 0 0
925 842 996 1061 881 1148 1258 1120 1186 1268 1401 1424 1396 1369 1444 1533 1423 1433 1314 1027 838 821 698 420 25 0 1 14 39 8 1 0 0 0 0 1 0 0 0 0 1 0 0
1189 968 757 775 1090 1104 1252 1317 1573 1560 1505 1507 1430 1417 1449 1564 1558 1398 1328 1415 1325 972 867 748 735 461 207 7 0 1 0 0 1 3 0 0 0 0 0 7 23 3 0
1111 1247 1178 939 884 1131 1122 1201 1361 1675 1737 1731 1702 1629 1622 1653 1627 1715 1419 1286 1194 1248 1437 1436 909 851 612 264 85 31 15 2 2 4 10 5 3 0 3 3 0 0 0
1353 1225 1187 1437 1420 1428 1311 1182 1307 1603 1818 1885 1875 1842 1842 1868 1882 1849 1867 1851 1533 1386 1086 872 1152 1354 971 557 33 89 81 8 0 0 2 1 4 12 15 1 0 0 3
1874 1700 1577 1354 1257 1495 1473 1428 1387 1673 1756 1919 2060 2063 2123 2112 2074 1875 2033 2106 2120 2096 1509 1198 1059 1102 1086 940 452 12 34 6 9 0 0 11 9 11 45 44 22 22 0
2084 2189 2213 2172 1843 1643 1541 1392 1323 1704 1729 1880 2088 2226 2148 2206 2187 2045 2134 2206 2327 2279 2165 2109 1737 1256 916 881 362 132 352 93 49 14 6 17 5 0 6 3 21 1 15

GFSMA_con_mlcape_048.txt.gz
CAPE
366 441 231 118 555 497 278 369 379 327 75 128 284 265 425 257 284 328 585 775 811 739 452 775 1005 1029 1033 1097 1076 1172 1090 1058 900 914 929 877 649 543 446 655 747 663 606
293 369 371 471 411 388 268 370 357 122 50 39 114 421 286 231 135 294 521 981 626 942 563 420 421 496 693 930 938 778 1017 953 915 1015 783 787 899 937 852 859 929 840 859
245 400 439 453 357 311 266 302 66 29 37 47 66 307 204 233 137 161 454 797 829 957 1086 1042 853 686 731 676 634 746 554 247 223 241 382 538 745 678 652 711 760 734 624
274 530 506 567 418 462 425 431 97 33 45 55 61 73 88 65 28 52 241 416 581 617 959 942 720 820 999 1106 1285 1018 926 845 870 874 665 517 542 656 544 605 582 493 478
363 435 593 656 529 641 350 457 384 82 67 64 46 50 44 22 18 36 71 100 310 566 658 671 532 496 577 813 862 712 618 773 526 534 669 626 460 339 375 355 304 342 364
481 561 644 611 569 499 330 199 195 92 89 39 27 31 39 38 17 49 25 15 27 180 296 323 417 362 453 860 1029 962 888 719 604 497 477 386 302 276 326 273 293 307 250
764 520 436 481 566 359 383 291 41 26 46 20 18 18 14 12 47 34 37 20 12 56 24 79 155 124 120 320 557 560 618 620 556 513 396 223 211 222 142 59 0 0 0
1029 772 420 395 457 503 311 156 56 29 6 5 12 2 11 3 10 18 31 57 72 62 39 16 47 73 68 198 235 124 177 278 517 317 100 3 0 0 0 0 0 0 0
909 1082 900 626 563 460 405 390 92 16 0 6 4 0 0 0 0 0 7 34 52 63 51 35 14 39 65 145 54 11 29 340 171 13 0 0 0 0 0 0 0 0 0
470 720 801 522 562 578 572 538 370 107 0 0 0 9 0 0 0 0 0 0 2 41 27 40 47 39 74 82 0 0 0 15 5 0 0 0 0 0 0 0 0 0 0
383 517 630 579 363 674 562 593 622 152 0 0 0 1 0 0 0 0 0 0 0 0 3 0 20 64 77 57 7 0 0 0 0 0 0 0 0 0 0 0 0 0 0
235 390 627 675 646 569 728 648 603 206 51 0 0 0 0 0 0 0 0 0 0 0 0 0 0 0 67 86 36 0 0 0 0 0 0 0 0 0 0 0 0 0 0
139 256 462 589 690 682 755 737 728 578 115 51 0 0 0 0 0 0 0 0 0 0 0 0 0 0 15 136 65 34 0 0 0 0 0 0 0 0 0 0 0 0 0
0 190 325 524 648 784 822 823 783 800 660 380 312 20 0 0 0 0 0 0 0 0 0 1 0 0 8 75 150 57 44 0 0 0 0 0 0 0 0 0 0 0 0
0 150 307 375 556 723 743 881 889 803 765 754 657 453 148 49 2 0 0 0 0 0 0 0 11 0 0 34 135 182 119 7 0 0 0 0 0 0 0 0 0 0 0
43 184 309 424 410 560 620 808 1055 993 839 958 963 796 564 343 137 30 40 1 0 0 0 0 0 0 0 0 0 47 50 17 0 0 0 0 0 0 0 0 0 0 0
0 171 279 283 293 292 462 673 946 1280 1097 912 1048 1126 925 574 363 291 102 25 15 0 24 17 0 0 0 2 1 9 7 0 0 0 0 0 0 0 0 0 0 0 0
5 56 349 348 326 322 457 607 646 1118 1328 1193 996 987 1088 1204 1073 899 681 238 22 12 1 36 16 3 27 2 0 0 0 0 0 0 0 0 0 0 0 0 0 0 0
78 92 293 420 424 502 578 705 842 908 1289 1382 1334 1209 1132 1133 1191 1234 1099 975 684 256 28 0 0 0 0 0 7 0 0 0 0 0 0 0 0 0 0 0 0 0 0
333 248 232 376 464 449 671 747 889 1044 1113 1255 1381 1484 1447 1312 1176 1247 1173 1113 1093 884 756 683 422 96 0 0 0 9 16 0 5 2 0 0 0 0 0 0 0 0 0
357 383 372 364 575 688 782 1054 1118 1028 1185 1251 1276 1422 1560 1544 1359 1257 1323 1155 1004 844 880 612 507 487 326 270 244 121 8 6 31 9 4 7 0 0 0 0 1 2 0
720 643 592 578 472 654 684 637 951 1294 1115 989 972 1106 1326 1438 1404 1283 1181 1308 1565 1289 1108 967 864 862 797 625 439 251 222 210 211 7 0 1 1 0 0 2 0 2 16
822 842 815 788 750 788 703 662 684 975 1263 1364 1398 1460 1463 1445 1375 1509 1294 1207 1250 1281 1455 1656 1494 1339 1259 1100 828 537 258 343 371 200 0 0 0 0 5 0 0 0 5
688 903 1002 960 852 806 699 599 617 960 1057 1139 1285 1375 1470 1651 1752 1747 1760 1779 1705 1545 1276 1224 1429 1759 1778 1745 1348 904 702 397 193 123 4 2 30 0 0 4 0 0 0
1054 969 1059 1178 1168 1064 808 658 604 964 1150 1170 1388 1480 1496 1504 1671 1528 1723 1750 1824 1971 1791 1348 1191 1291 1279 1238 1129 1185 655 132 241 241 29 0 39 0 0 0 0 0 0
1436 1403 1370 1342 1277 1367 1281 1013 959 1247 1191 1311 1509 1625 1568 1703 1806 1693 1859 2006 2145 2224 2218 2289 2152 1474 1144 1162 898 696 959 1062 573 228 120 0 6 0 0 0 0 0 0

GFSMA_con_mlcape_051.txt.gz
CAPE
762 756 599 757 1289 1105 1129 1069 1151 811 730 925 716 974 990 924 683 295 370 875 720 581 678 1144 1189 983 1034 962 825 876 879 815 815 915 981 922 756 736 827 923 884 741 724
866 1085 1088 1150 1111 1029 972 1117 1245 448 259 291 958 907 906 807 587 405 385 439 550 808 450 365 448 585 654 837 718 666 808 831 828 971 528 383 488 530 764 697 850 714 655
710 928 1146 1064 1013 961 689 826 585 181 152 396 995 997 844 766 309 428 625 1024 737 503 911 567 477 370 486 526 497 484 353 163 125 129 355 759 669 659 580 659 645 582 450
672 1105 1121 1132 1076 1107 1085 750 420 178 192 189 466 593 666 524 294 373 429 716 855 637 650 555 464 684 801 1085 895 932 884 841 768 758 613 558 479 549 538 517 617 558 458
712 1023 823 1141 1144 1198 879 933 820 154 106 134 176 301 266 111 108 133 316 461 625 647 711 715 490 467 566 725 790 645 522 553 581 444 407 545 530 371 332 314 232 298 362
728 1034 734 1411 1186 898 626 872 795 97 445 194 64 88 129 135 86 251 243 158 264 482 484 738 616 456 343 691 974 1009 996 877 705 620 537 360 293 255 291 233 259 141 38
862 1105 1088 1227 1049 346 430 633 237 90 73 90 73 58 29 34 176 187 316 255 215 275 235 296 474 302 270 125 339 440 522 662 620 444 234 124 139 111 66 5 0 0 0
1166 1291 950 919 620 643 731 641 425 59 63 59 74 59 55 29 30 88 244 319 454 393 300 231 273 436 340 313 184 88 75 102 564 287 43 0 0 0 0 0 0 0 0
1242 1472 1137 1028 629 503 862 870 621 171 21 47 56 49 23 22 17 13 95 347 522 509 491 491 287 321 467 361 95 0 0 162 229 33 0 0 0 0 0 0 0 0 0
1119 1561 1641 1387 1118 1170 788 1045 868 489 2 14 26 56 9 14 12 12 50 111 244 358 445 413 336 412 493 405 112 0 0 0 0 0 0 0 0 0 0 0 0 0 0
1097 1150 1296 1302 1062 1185 851 1022 1004 841 208 4 15 102 128 7 0 16 2 45 111 194 320 336 252 341 569 529 330 74 0 0 0 0 0 0 0 0 0 0 0 0 0
835 1007 1196 1250 1288 1180 1257 1278 1283 1141 423 5 0 78 122 134 49 0 0 23 24 122 184 349 270 261 371 580 507 119 0 0 0 0 0 0 0 0 0 0 0 0 0
755 784 943 1138 1207 1284 1351 1471 1443 1344 742 448 3 0 2 34 42 43 24 73 82 213 156 213 251 334 285 465 589 338 176 0 0 0 0 0 0 0 0 0 0 0 0
370 851 826 1017 1110 1369 1470 1606 1555 1564 1442 890 787 244 133 32 0 33 49 95 189 351 321 264 453 347 315 452 617 436 400 136 0 0 0 0 0 0 0 0 0 0 0
172 538 591 754 978 1101 1304 1549 1531 1701 1656 1613 1475 1337 855 597 257 109 69 86 166 206 160 304 267 537 449 535 580 637 698 559 88 0 0 0 0 0 0 0 0 0 0
182 108 453 741 1004 1049 1246 1536 1459 1710 1810 1667 1570 1670 1502 1283 848 537 396 263 187 227 242 294 275 372 410 296 377 325 528 414 200 5 0 0 0 0 0 0 0 0 0
287 270 409 632 927 1099 1213 1284 1293 1507 1791 1956 1809 1701 1691 1721 1386 1010 748 575 382 267 273 255 437 350 367 396 386 375 293 357 358 60 0 0 0 0 0 0 0 0 0
356 396 452 653 848 973 1147 1163 1071 1169 1562 1878 2018 1897 1705 1767 1638 1664 1376 1094 823 699 331 115 316 462 448 512 589 469 416 244 242 166 1 0 0 0 0 0 0 0 0
372 398 501 489 706 930 1016 1102 1093 1223 1508 1698 2082 2143 1960 1946 1900 1751 1960 1687 1534 1375 985 603 536 598 623 516 478 519 389 341 335 158 5 0 0 0 0 0 0 0 0
473 470 565 614 654 1069 1240 1274 1274 1298 1451 1678 1866 2143 2246 2232 2144 2153 2174 2111 2015 1807 1590 1498 1255 1146 1105 981 692 447 434 514 449 314 162 6 8 0 0 0 0 0 0
706 629 635 701 761 926 913 1182 1330 1379 1357 1530 1806 1967 2110 2123 1944 2036 2187 2228 2170 1991 1782 1463 1345 1259 1224 1221 1160 1119 1030 1017 941 792 567 417 272 96 23 0 0 0 0
833 859 860 872 838 891 575 644 1003 1392 1669 1722 1565 1788 1956 1665 1406 1155 1186 1371 1801 2230 1993 1922 1784 1777 2091 1924 1815 1774 1682 1553 1551 1539 861 540 324 286 153 62 0 0 0
1038 929 956 1036 998 1064 662 408 480 977 1382 1706 1921 1938 1825 1672 1635 1759 1680 1173 1058 1124 1382 1816 2054 2314 2397 2541 2460 2360 2276 2126 1886 1729 1464 1150 947 547 330 362 11 0 0
1423 1317 1275 1311 1214 1277 916 517 323 706 1262 1545 1592 1724 1959 1986 2111 2025 1927 2124 2394 2487 2116 1533 1597 1900 2334 2581 2693 2753 2750 2407 1818 1560 1280 956 1134 1009 756 429 90 0 0
1153 1264 1482 1536 1402 1381 996 704 595 925 1107 1372 1643 1726 1751 1712 1786 1610 1634 1571 1800 2219 2167 2034 1904 1810 1719 1480 1472 1775 1826 1792 1632 1300 1263 1041 894 577 569 703 456 0 0
1302 1286 1316 1568 1619 1547 1326 684 587 1149 1243 1249 1589 1748 1462 1438 1638 1492 1510 1615 1727 2035 2376 2767 3061 2196 1619 1790 1418 1098 1457 1651 1800 1848 1965 1580 1201 931 508 442 369 151 0

GFSMA_con_mlcape_054.txt.gz
CAPE
936 901 1047 1063 968 944 880 938 902 926 1160 788 719 815 614 566 354 134 382 578 513 551 1002 1351 1104 1071 1092 995 767 874 878 845 1003 920 1042 974 978 842 788 654 752 752 792
1157 1129 1041 1096 1050 726 664 718 856 332 159 241 811 810 732 555 409 413 419 309 798 569 363 435 524 614 633 835 760 714 818 806 745 694 325 165 382 716 539 550 499 629 481
1643 1340 1239 1071 1133 1304 1202 921 618 368 60 96 566 873 701 513 457 535 680 823 554 601 677 454 401 345 477 588 527 533 495 291 126 173 534 922 612 557 616 549 644 646 631
1565 1059 1238 918 1178 730 310 304 125 82 83 68 169 393 490 337 433 524 551 657 562 803 400 418 654 696 790 837 757 677 787 695 763 780 698 588 626 519 602 524 373 356 420
1075 912 913 904 1369 511 268 99 81 67 72 51 71 177 216 122 200 157 364 490 530 526 499 341 262 326 467 748 973 862 690 790 744 539 391 529 563 431 340 242 280 318 291
1224 918 1106 800 907 441 240 138 108 218 93 71 55 66 90 136 178 170 102 65 115 249 187 507 677 607 199 327 726 977 976 938 746 637 521 310 213 232 222 176 90 15 0
1411 1054 927 926 612 591 816 953 597 518 88 88 49 58 45 106 201 147 102 33 131 186 127 210 422 122 404 87 193 279 373 545 554 359 180 97 65 53 27 0 0 0 0
1608 1471 1190 965 500 369 774 832 661 144 92 72 57 44 37 3 25 45 72 136 169 200 213 115 113 312 125 1 42 4 24 31 437 175 0 0 0 0 0 0 0 0 0
1568 1736 1525 1117 889 833 349 483 845 385 86 86 331 55 11 40 13 4 142 195 364 303 293 383 225 152 231 188 64 4 0 0 85 4 0 0 0 0 0 0 0 0 0
1535 1701 1844 1414 1090 836 1012 563 1067 623 353 48 63 26 172 23 38 73 44 142 245 259 356 358 321 356 347 315 82 0 0 0 0 0 0 0 0 0 0 0 0 0 0
1689 1536 1893 1888 1357 664 854 1220 1075 943 205 69 27 29 143 14 27 52 72 148 169 193 236 368 277 297 447 432 371 247 0 0 0 0 0 0 0 0 0 0 0 0 0
1337 1669 1714 1909 1792 1101 1050 1138 1280 1348 1000 509 4 99 44 82 114 103 48 154 133 158 185 241 263 301 328 515 538 278 21 0 0 0 0 0 0 0 0 0 0 0 0
539 962 1728 1882 1587 1875 1673 1583 1402 1689 1810 758 477 0 43 104 211 243 197 117 200 293 356 412 360 431 357 397 452 429 220 1 0 0 0 0 0 0 0 0 0 0 0
313 538 1536 1584 1754 1703 1641 1833 1591 1403 1710 1311 1441 572 35 68 100 145 220 244 287 463 515 707 545 552 629 646 621 584 523 271 19 0 0 0 0 0 0 0 0 0 0
279 423 827 1418 1360 1524 1690 1710 1419 1864 1782 1813 1492 1438 1185 445 368 232 244 254 244 342 315 641 163 814 611 620 755 813 863 764 331 85 0 0 0 0 0 0 0 0 0
789 415 714 923 887 1171 1591 1802 1399 1658 1987 1704 1540 1558 1651 747 721 573 492 414 358 333 274 180 316 424 668 646 418 731 817 846 640 373 146 2 0 0 0 0 0 0 0
895 1148 784 675 664 1347 1528 1707 1542 1409 2080 2092 1791 1623 2098 2196 1435 796 716 667 538 469 378 242 228 348 1017 1314 1054 962 873 839 621 383 215 65 0 0 0 0 0 0 0
1214 1280 1153 988 794 1056 1502 1791 1672 1184 1581 1880 2080 2046 1951 1732 2214 2056 1243 963 632 674 566 710 542 334 414 682 867 1157 1240 875 457 248 203 107 1 0 0 0 0 0 0
1432 1264 1282 1284 1128 1033 1404 1755 1790 1593 1474 1692 1891 2029 2018 2076 2023 1705 1587 1321 1256 1544 1622 1465 1208 989 865 992 1148 1485 1465 1175 1092 763 391 120 33 0 0 0 0 0 0
1516 1492 1354 1349 1349 1118 1018 1408 1569 1702 1635 1690 1903 1981 2260 2393 2458 2611 2661 2506 2441 2274 1735 1689 1392 1105 914 885 1052 1253 1419 1353 1226 1187 1074 758 435 121 0 0 0 0 0
1537 1620 1568 1418 1452 1322 879 1102 1290 1397 1617 1746 1784 2146 2230 2409 2480 2649 2630 2686 2732 2380 1757 1319 1146 1113 1122 1196 1427 1483 1747 1770 1791 1939 1899 1818 1722 1387 890 20 6 0 0
1594 1715 1589 1545 1483 1351 777 586 993 1114 1271 1674 1848 2003 2169 2166 2283 2091 1973 1772 1818 2567 2915 2277 1637 1586 2285 2293 2064 2105 1917 2010 2328 2283 2395 2300 2219 2126 1882 1633 1082 87 0
1760 1878 1799 1715 1715 1704 1053 560 484 786 960 1365 1841 1900 1849 1537 1933 2273 1957 1697 1560 1389 1328 1763 2173 2398 2535 2816 3123 3241 2668 2967 3280 3491 3282 2793 2625 2415 2354 2256 1792 883 131
1948 1970 1986 2052 2003 1956 1473 949 548 899 1119 1340 1559 1742 2059 1877 1729 1688 1934 2052 2207 2419 2426 2150 2193 2339 2362 2355 2776 3205 3126 2828 2923 2997 2778 2346 2484 2356 2242 2028 1715 1236 636
2111 2094 2097 2163 2130 2113 1526 1153 888 1085 1166 1498 1612 1845 2000 2127 2089 1882 1995 1849 1858 1900 1615 1591 1690 1751 1825 1933 2062 2383 2425 2642 2711 2762 2874 2815 2859 2724 2483 2229 1974 1525 775
2232 2169 2231 2340 2320 2398 2133 1250 1021 1331 1271 1284 1593 2012 1704 1733 1904 1754 1916 1732 1722 1608 1680 1893 2256 2763 2463 2521 2277 2131 2579 2522 2706 2638 2745 2948 2369 1856 1478 1449 1244 1361 989

GFSMA_con_mlcape_057.txt.gz
CAPE
768 891 1072 781 657 522 293 570 674 719 282 422 623 570 229 305 145 409 249 343 525 945 1345 1376 976 1144 989 835 766 822 803 794 986 873 798 653 535 460 574 526 572 629 527
952 1181 922 839 899 957 523 728 757 248 336 185 338 528 452 338 597 586 354 437 349 204 290 424 458 493 516 711 530 620 442 439 409 318 160 303 621 785 689 605 671 657 597
1355 1384 656 922 926 1018 934 394 100 47 61 162 375 511 172 473 455 681 672 667 723 426 268 278 329 332 438 536 512 522 519 392 180 192 537 842 638 498 643 527 593 591 518
1610 1504 723 510 489 465 612 200 217 133 64 69 203 387 342 200 328 419 712 774 732 995 567 560 529 579 635 792 762 698 852 575 655 717 749 637 676 651 579 398 302 279 394
1349 1296 560 1010 1162 658 119 65 103 42 29 47 73 178 170 71 276 46 130 456 377 716 968 139 99 148 271 622 831 948 740 731 735 705 455 506 601 455 280 205 253 247 63
1137 1457 1027 783 1208 568 99 162 67 272 45 41 38 59 90 53 55 111 19 44 11 123 781 743 502 336 162 186 635 985 985 830 685 560 410 228 148 167 167 138 8 0 0
1173 1462 1243 991 1054 898 151 288 30 119 47 10 9 34 12 4 46 54 42 85 41 121 4 147 456 959 539 114 126 232 346 473 483 289 102 0 0 0 0 0 0 0 0
1442 1113 943 940 908 707 958 587 616 99 60 23 36 72 28 3 38 63 24 20 111 165 148 104 106 117 72 540 814 0 0 26 218 91 0 0 0 0 0 0 0 0 0
1310 1546 1182 1214 1018 1195 737 935 908 785 254 22 25 109 37 30 69 2 31 156 240 354 266 341 214 153 233 337 18 0 0 0 34 0 0 0 0 0 0 0 0 0 0
1350 1472 1410 1324 1414 1077 807 845 970 971 551 34 13 13 85 115 112 205 76 121 246 295 417 409 491 357 345 439 134 44 0 0 0 0 0 0 0 0 0 0 0 0 0
1565 1294 1732 1335 1513 1200 1323 1153 1348 1051 318 283 34 25 40 4 54 142 324 179 214 174 267 526 315 386 724 499 478 363 0 0 0 0 0 0 0 0 0 0 0 0 0
1348 1474 1516 1691 1439 1094 1439 1479 1396 1179 1284 419 506 125 43 42 77 61 35 107 127 169 174 214 306 314 384 656 646 267 88 0 0 0 0 0 0 0 0 0 0 0 0
368 1358 1661 1929 1734 1754 1696 1437 1725 1395 1531 864 667 69 114 114 160 174 145 173 207 296 400 436 414 449 431 471 510 534 274 40 0 0 0 0 0 0 0 0 0 0 0
153 1878 1926 1571 1764 1822 1771 1839 1612 1502 1599 1452 1344 591 227 71 79 115 258 370 436 522 697 579 625 694 687 741 749 515 606 280 102 0 0 0 0 0 0 0 0 0 0
319 364 1175 1581 1481 1397 1625 1614 1245 1847 1923 1847 1470 1585 1074 343 365 227 260 304 367 536 640 1324 279 786 483 531 686 950 963 940 424 202 22 0 0 0 0 0 0 0 0
789 694 670 887 1419 1414 1447 1878 1332 1359 1888 1652 1185 1602 1463 799 629 607 488 416 375 332 342 323 378 438 588 595 569 794 813 714 657 581 398 178 32 0 0 0 0 0 0
1474 1319 1256 1075 1164 1235 1309 2112 1744 1505 1641 1711 1814 1568 1996 2025 1601 1007 679 535 493 481 439 389 329 450 1114 1551 1469 1469 1304 1284 1070 659 455 313 170 67 3 0 0 0 0
1670 1777 1783 1504 1342 946 1418 2028 1772 1160 1794 1784 1768 1866 1730 1804 2310 2173 1767 1401 857 951 770 804 706 814 1096 1171 1227 1600 1452 1540 1403 1071 684 384 203 73 19 0 0 0 0
2112 1747 1891 2031 1695 1115 1520 2024 2162 1920 1651 1721 1746 1903 1972 2098 2285 1907 2188 1340 1072 1439 1617 1698 1620 1449 1344 1360 1451 1698 1905 1949 1806 1587 1192 810 512 212 42 0 0 0 0
2194 2198 2178 2174 2018 1738 1406 1492 1939 2124 1991 1704 1855 1987 2073 2201 2452 2735 2568 2627 2356 2111 1623 1623 1574 1618 1564 1407 1194 1334 1663 1788 1835 1755 1846 1823 1681 984 536 201 17 0 0
2271 2385 2453 2349 2298 1877 1570 1506 1783 1998 2135 1964 1903 2104 2088 2248 2192 2690 2550 2621 2526 2609 2202 2039 1793 1491 1243 1237 1759 1732 1837 2299 2426 2122 2134 2516 2643 2942 2833 948 432 73 0
2330 2475 2404 2468 2383 1759 1278 1058 1325 1518 1841 2022 2160 2199 2234 2097 1971 1934 2137 2259 2241 2673 3187 2446 1782 1651 1756 2089 2166 2158 2422 2399 2621 2539 3329 3687 3519 3340 3245 3115 2741 1514 766
2352 2515 2566 2554 2576 2471 1334 926 700 1174 1625 1850 2017 2239 2204 1493 1948 2496 2306 2114 2040 1843 1647 1810 1837 1963 2112 2409 2871 3047 2283 2651 3394 3530 3193 3196 3152 3189 3180 2838 2678 2190 1351
2364 2539 2611 2644 2700 2721 2023 1095 723 965 1094 1422 1978 2114 2278 2072 2128 2329 2604 2469 2558 2717 2703 2286 2161 2417 2817 2953 3098 2900 2851 2914 3318 3314 3266 3090 3300 3182 3395 3073 2729 1885 1085
2661 2615 2774 2792 2814 2831 1984 1409 1020 1108 1208 1487 1772 1789 2109 2508 2650 2082 1814 1901 2297 2672 2050 1507 1552 1967 2110 1933 1515 1706 2282 3126 3112 2891 3265 3408 3289 2986 2180 1879 1797 1257 1104
2826 2506 2667 3010 3121 3162 2722 1640 1281 1611 1391 1448 1907 2123 1893 1752 2027 2110 2265 2338 2466 2724 2607 2238 2122 2241 1967 2212 2369 2569 3156 3200 3187 3257 3239 3138 2778 1901 1788 2007 1756 2011 1586

GFSMA_con_mlcape_060.txt.gz
CAPE
675 540 582 281 504 695 218 270 294 1138 332 402 572 401 347 721 218 157 550 802 1137 1261 1365 949 963 945 973 636 752 656 660 743 801 711 283 152 184 538 565 463 540 616 574
495 839 484 545 196 267 819 732 524 453 214 468 242 187 415 722 498 172 89 146 208 588 1037 653 502 451 478 478 488 770 306 261 211 136 91 393 749 578 581 586 566 652 590
799 801 881 1036 1070 125 786 73 132 520 201 447 347 455 571 669 682 771 436 424 240 126 151 182 141 204 368 395 370 359 413 430 252 226 498 783 583 610 520 585 534 382 405
1509 420 407 305 650 1136 12 58 413 67 433 154 313 177 370 438 702 549 929 963 898 688 344 288 181 121 217 695 696 788 745 769 560 621 624 559 484 642 488 314 209 255 243
1598 363 26 284 1418 230 320 81 227 45 26 65 92 140 134 308 391 492 884 757 1106 741 715 315 394 359 416 523 688 866 754 609 765 767 637 471 453 289 217 161 134 27 0
1273 1538 1065 812 1455 88 435 691 33 59 171 47 34 69 109 336 84 217 57 570 728 813 1044 283 262 293 197 464 698 889 873 824 747 518 369 168 45 79 109 51 0 0 0
1275 1678 1128 935 1222 48 279 485 55 58 147 28 27 45 25 22 16 313 239 83 30 800 891 801 654 905 104 292 244 136 374 484 543 271 115 0 0 0 4 0 0 0 0
1393 1551 1197 893 943 347 320 908 83 33 294 21 25 175 129 5 103 20 177 187 209 207 84 170 387 647 840 448 414 3 0 68 264 104 0 0 0 0 0 0 0 0 0
1463 1449 1320 1282 861 1070 956 916 802 828 479 51 12 86 97 51 253 20 0 374 99 284 428 296 296 217 203 847 490 11 0 0 18 15 0 0 0 0 0 0 0 0 0
1434 1777 1346 1630 1112 692 916 658 1058 728 131 131 48 33 85 135 69 130 283 430 267 404 366 700 374 293 367 545 394 265 11 0 0 0 0 0 0 0 0 0 0 0 0
1630 1597 1523 1512 1266 996 1094 1119 890 1081 1211 755 370 3 19 90 197 142 227 304 263 493 587 342 654 604 530 571 518 186 8 0 0 0 0 0 0 0 0 0 0 0 0
1730 1747 1715 1534 1677 1311 1186 1390 1561 1249 1218 1063 808 509 12 85 93 131 292 114 369 175 396 591 338 382 866 730 569 629 171 1 0 0 0 0 0 0 0 0 0 0 0
1200 1547 1964 1531 1525 1605 1331 1522 1379 1674 1411 1547 901 647 612 191 129 324 174 562 261 321 373 349 466 484 485 701 749 668 295 97 0 0 0 0 0 0 0 0 0 0 0
1099 1504 1757 1577 1672 1624 1661 1479 1627 1797 1505 1383 1157 811 592 800 49 111 202 413 514 786 742 525 743 670 656 715 801 629 482 277 132 14 0 0 0 0 0 0 0 0 0
935 1720 1625 2193 1764 1934 1696 1587 1357 1356 1669 1449 1396 1238 784 782 738 175 237 352 487 483 769 901 809 859 747 853 894 684 644 634 424 289 143 26 1 0 0 0 0 0 0
272 1939 2085 1844 1851 2006 1940 1879 1659 1438 1455 1541 1773 1694 1320 822 1009 1099 650 658 581 491 454 537 746 885 914 739 820 870 1086 941 800 574 401 265 177 91 20 0 0 0 0
1729 798 1707 1814 1854 1647 2076 1967 1388 1690 1544 1526 1817 2034 1548 1436 1400 1939 1604 796 578 770 677 662 1028 900 1141 1125 1197 1188 1337 1321 1328 1165 921 592 346 216 116 17 0 0 0
1053 1984 1244 1900 1387 1853 1868 1821 2008 1432 1747 1666 1849 1479 2120 2495 2228 1649 1683 1738 1883 1754 1232 1043 971 655 775 1394 1569 1688 1807 1670 1539 1575 1445 1088 834 529 235 76 16 0 0
1954 1545 2094 1590 1986 1688 1646 1696 2159 2063 1696 2321 2279 2102 1873 1975 1997 2592 2344 2053 1582 1667 1540 1320 1750 2288 2072 1736 1648 1805 2038 2020 2059 1965 1782 1468 1236 958 714 383 169 3 0
1501 1805 1831 2285 2139 1961 1625 1600 2377 2383 2087 1906 2284 1835 2191 2414 2375 2534 2401 2097 2204 2151 1959 1814 1625 1791 2036 2021 2129 2107 1764 1734 1903 2635 2313 1758 1676 1937 2077 1438 954 373 11
1911 2022 2074 2294 2451 2393 1965 1562 1816 2350 2390 2259 2079 2200 2205 2400 2371 2627 2772 2829 2745 2661 2726 2741 2717 2643 2093 1682 1699 2028 2513 2670 2400 2274 2342 3197 3385 3215 3243 2946 2100 1665 1344
1716 2118 2303 2335 2550 2535 2031 1463 1600 1725 2353 2359 2246 2161 2477 2068 1850 1668 1731 2182 2394 2382 2615 2875 2881 2492 2105 1954 2343 2020 1851 2104 1964 2620 3386 2982 3274 3466 3412 3373 3140 2585 1986
2052 2172 2317 2455 2558 2660 1971 1306 1298 1632 1759 2135 2344 2325 2354 2206 2061 2212 1858 1501 1560 1723 1813 1969 1967 1944 1925 1792 2003 2316 2263 2609 2730 2839 2899 3314 3391 3351 3400 3580 2244 1577 1242
2114 2304 2402 2466 2567 2663 2436 1483 1022 1307 1586 1819 1883 2110 2290 2247 1890 2261 2488 2558 2430 2340 2248 1986 1931 2077 2272 2481 2465 2415 2555 2935 2454 2648 3441 3220 3109 3167 3387 2518 1748 1667 1510
2353 2362 2548 2596 2523 2649 2470 2043 1180 1000 1235 1330 1410 1782 2431 2441 2192 1628 1270 1527 2104 2555 2910 2695 2715 2650 2287 2201 2388 2484 2170 1791 2397 3175 3420 2945 3006 2941 2115 1644 1878 1281 673
2362 2538 2498 2654 2814 2792 2579 2174 1689 1578 1254 1372 1560 1675 1481 1283 1575 2279 2539 2391 2087 1821 2063 2440 2621 2406 2101 2053 1753 1641 2408 3044 3408 3324 3150 2785 2326 1820 1942 1927 844 849 901

GFSMA_con_mlcape_063.txt.gz
CAPE
106 151 394 316 381 549 598 180 422 396 95 366 317 270 205 98 384 715 787 965 1122 1190 1259 1378 1098 1248 917 681 595 524 558 738 607 514 149 98 442 596 550 551 515 592 484
474 441 79 82 122 317 264 146 548 731 416 357 111 344 100 31 0 25 174 434 868 1070 1153 686 878 689 483 345 718 765 225 117 54 58 68 409 633 487 439 547 466 406 359
0 641 569 378 285 378 546 198 654 448 319 269 172 408 401 245 93 13 13 61 123 464 713 344 207 169 207 287 196 158 286 402 412 410 538 646 463 494 458 354 282 208 262
491 356 183 434 411 596 321 67 266 213 435 325 332 399 489 590 496 354 272 257 94 66 160 191 134 130 258 457 785 808 661 692 407 396 491 473 379 462 341 155 106 125 2
639 32 16 357 971 309 47 80 123 125 119 99 109 245 319 458 514 458 664 765 591 598 244 229 217 215 352 670 726 730 658 506 593 652 639 496 407 163 118 72 41 0 0
955 680 292 176 255 94 163 372 97 79 105 60 152 151 92 274 344 326 685 959 738 894 447 385 278 382 318 560 647 847 888 791 660 484 302 124 43 35 43 22 0 0 0
1249 682 1012 912 424 37 152 460 237 179 49 64 67 152 148 202 161 195 273 452 547 623 553 543 226 324 228 175 427 319 278 364 334 288 84 15 0 3 3 0 0 0 0
1232 1005 581 821 686 26 252 152 53 45 395 24 51 179 86 3 33 81 139 201 118 525 671 611 510 507 639 203 309 50 0 32 70 60 18 0 0 0 0 0 0 0 0
1042 1246 869 995 427 621 421 489 244 366 305 67 21 81 87 62 174 101 102 136 28 237 378 487 526 450 674 471 484 192 0 0 0 1 0 0 0 0 0 0 0 0 0
980 1010 1089 1027 858 547 681 558 622 544 386 115 47 23 91 80 61 18 54 208 62 322 252 239 258 225 208 400 693 331 67 0 0 0 0 0 0 0 0 0 0 0 0
1211 1147 1084 1367 886 621 561 604 781 578 1034 857 495 192 45 7 75 70 125 289 199 206 346 394 403 342 266 440 408 388 266 1 0 0 0 0 0 0 0 0 0 0 0
1244 1377 1144 1011 970 683 961 920 1222 1008 631 1012 899 777 117 42 96 158 236 251 155 119 356 388 314 497 400 467 575 550 443 215 1 0 0 0 0 0 0 0 0 0 0
1241 1441 1283 1206 1236 977 1229 1123 1231 1507 1020 965 841 514 504 522 90 218 233 406 304 174 215 358 370 291 405 520 597 620 473 323 63 6 3 0 0 0 0 0 0 0 0
905 1096 1417 1216 1090 1404 930 1145 1096 1260 1134 1147 756 934 347 348 611 129 58 195 295 397 578 365 495 303 302 482 591 611 521 456 177 57 19 0 0 0 0 0 0 0 0
1026 767 1485 1318 1070 1217 981 1210 1113 1258 1448 1333 1186 824 561 297 395 599 138 160 263 299 369 693 745 877 457 429 564 700 577 470 294 206 154 74 46 27 1 0 0 0 0
827 1033 1552 1270 1243 1248 1252 1368 1069 1171 1218 1105 947 1156 649 48 85 909 1119 433 498 422 372 370 312 779 1082 845 864 829 625 604 614 568 480 393 312 209 122 20 5 0 0
810 994 1482 1528 1583 1408 1614 1702 1315 1264 1321 1037 1186 1354 1415 1215 613 821 1628 1582 775 533 523 483 740 1011 807 635 405 988 1081 1099 1055 941 868 814 732 599 423 229 128 34 0
490 1435 1401 1322 1655 1713 1671 1629 1563 1294 1262 1588 1322 1426 1690 1920 1390 1455 1337 1363 1443 1642 1328 942 775 633 1183 1761 1611 1481 1582 1883 1807 1659 1511 1356 1109 921 794 620 436 246 42
251 694 1646 1733 1571 1406 1239 1452 1698 1482 1267 1378 1583 1628 1466 1425 2095 2190 1990 1906 1800 1777 2091 1938 1809 1878 1824 1409 1642 1805 1858 1819 2090 2225 2184 1873 1393 1348 1898 1718 1432 1125 760
568 402 1028 1369 1296 1205 1291 1379 1541 1532 1357 1386 1874 1988 1862 1744 1624 1677 1808 1949 1896 1836 1788 1733 1512 1569 2122 2254 2145 1845 1379 1689 1764 1552 1484 1721 2165 3000 2731 2635 2448 2214 1743
361 1410 1046 1623 1605 1452 1427 1227 1331 1545 1540 1547 1351 1489 2117 1970 1878 2126 2269 2283 2391 2324 2235 2273 2386 2592 2894 2682 2233 1750 1480 1281 1533 1708 1985 2312 2818 2806 3203 3244 3157 2607 1399
1214 580 1251 1407 1730 1931 1651 1392 1255 1421 2028 1991 1693 1690 1665 1921 1963 1833 1917 2277 2563 2604 2645 2742 2572 2315 1961 1573 1299 1345 1543 1586 1752 2140 2562 2525 2488 3215 3231 3211 3028 1777 977
590 1584 1187 1204 1339 1632 1788 1679 1439 1255 1226 1789 2006 1985 1892 1921 1915 2109 2012 1771 1599 1420 1568 1851 1762 1739 1741 1718 1854 1952 1783 1823 2048 2353 2783 2356 2944 3033 2813 2997 1763 1243 417
747 615 1331 1657 1687 1733 1871 1765 1650 1366 1376 1353 1582 1928 2016 1889 1820 1781 1842 1920 1911 1697 1535 1425 1444 1782 1943 2086 2226 2020 2061 2296 2626 2604 1820 3026 3246 2739 2364 1609 1362 517 191
1322 1073 1281 1536 1765 1942 1881 1892 1567 1205 1240 1398 1470 1501 1726 1875 1928 1894 1762 1522 1854 2515 2878 2648 2454 2337 2113 1941 2042 2053 2227 2292 2217 2212 2941 3228 2803 2241 1682 1550 777 316 8
1328 1696 1477 1788 1936 1964 1957 1855 1681 1566 1014 1067 1278 1447 1535 1697 1665 1728 1810 1776 1631 1262 1221 1352 1588 1588 1714 2033 2113 1667 1850 2049 2397 2999 3100 2878 2487 1759 1797 1613 671 74 0

GFSMA_con_mlcape_066.txt.gz
CAPE
3 232 436 466 406 429 213 7 63 243 351 289 418 562 363 300 272 650 943 827 919 1353 1283 1258 1159 1166 1042 837 629 438 486 626 400 291 63 186 609 432 386 538 394 594 317
72 266 119 133 212 184 476 125 91 408 319 284 222 220 294 81 327 290 513 693 938 1056 1137 1080 889 948 672 429 917 654 247 98 8 15 43 376 509 434 485 507 413 321 242
248 414 1 26 64 95 283 107 185 526 427 127 157 59 0 0 21 3 76 215 717 898 1018 586 600 478 382 372 260 91 111 322 509 604 601 540 531 477 515 292 196 141 124
58 408 94 202 220 392 374 89 377 322 164 119 232 168 122 23 0 7 15 59 97 340 813 470 233 165 283 410 569 813 863 658 620 309 456 474 360 432 314 155 70 64 0
284 76 29 204 461 357 59 32 230 128 136 168 210 361 269 329 168 175 145 150 87 49 72 156 167 147 255 511 762 784 722 619 475 601 555 406 255 73 44 28 6 0 0
146 47 38 213 33 88 124 143 45 74 90 98 140 212 230 421 434 327 388 492 515 453 319 145 223 235 240 531 679 692 919 907 697 491 207 94 28 3 12 1 0 0 0
599 475 248 313 147 46 208 98 38 178 81 44 62 105 124 150 315 326 409 596 752 655 729 368 300 242 323 315 419 366 370 369 381 182 100 22 0 0 0 0 0 0 0
892 459 531 454 114 43 203 52 41 58 59 32 52 84 39 0 137 180 185 294 437 623 610 498 473 246 337 362 241 342 61 38 94 103 39 0 0 0 0 0 0 0 0
1100 764 696 635 257 3 138 95 39 136 27 15 24 111 79 0 84 46 65 115 181 171 383 518 585 460 334 463 339 410 172 0 0 7 9 0 0 0 0 0 0 0 0
944 994 782 605 302 301 111 306 652 278 70 20 15 15 76 49 25 3 3 85 23 198 202 252 489 572 484 409 387 460 387 110 0 0 0 0 0 0 0 0 0 0 0
920 992 992 849 401 184 459 331 342 408 574 393 128 124 38 0 39 81 100 96 145 68 162 113 153 221 227 335 358 474 580 265 100 0 0 0 0 0 0 0 0 0 0
995 729 919 1045 684 400 373 437 701 643 445 742 599 472 154 42 52 169 141 172 179 107 96 208 214 249 278 218 345 473 495 369 293 124 0 6 2 0 0 0 0 0 0
1052 1030 905 897 656 316 699 632 682 984 634 584 678 378 376 344 87 152 96 252 246 183 89 191 275 194 283 257 267 485 540 497 434 278 121 0 1 0 0 0 0 0 0
914 1072 1061 963 902 728 715 816 843 878 847 800 807 716 463 220 431 282 37 81 176 228 329 546 322 286 232 283 318 380 555 551 477 356 256 77 8 0 0 0 0 0 0
737 933 1182 1123 1001 884 645 942 781 843 958 812 724 493 439 366 182 254 757 56 93 138 233 310 431 499 806 422 295 397 580 581 521 463 345 205 107 43 2 3 26 11 0
807 794 1174 1225 1044 918 861 665 795 837 982 985 786 708 208 180 79 74 969 805 324 245 272 227 273 420 1002 828 773 773 638 635 625 596 558 497 394 312 242 183 176 177 71
854 988 1112 912 1134 1023 906 895 729 730 943 938 767 796 788 885 430 621 668 1219 1301 835 454 356 361 793 803 625 1461 1441 1324 1374 1449 1460 1444 1386 1229 994 855 812 747 793 548
690 1021 869 1143 1153 1111 972 1058 1009 1020 898 1135 918 814 1127 1393 1193 1259 1232 1144 1091 1132 1153 1034 810 1197 1313 1555 1380 1372 1967 1815 1844 2064 1914 1347 1272 1298 1461 1772 1507 1568 1377
421 1164 1017 1025 1351 1166 1193 1228 1291 1140 1107 1071 1266 1248 1045 1183 1365 1602 1555 1749 1620 1654 1797 1774 1808 1664 1660 1326 1942 2024 1751 1725 1451 1346 1297 1413 1727 1966 2237 2462 2545 2332 1784
30 482 1136 1234 1218 1217 1395 1457 1429 1322 1239 1187 1151 1125 1417 1440 1366 1221 1547 1525 1490 1545 1571 1540 1442 1360 1504 2068 2196 2378 2292 1315 1021 1301 1414 1641 2014 2387 2485 2813 2882 2434 709
122 158 482 1065 1421 1312 1256 1172 1173 1077 1014 1009 1121 1160 1359 1715 1771 1603 1701 1769 1854 1830 1859 1922 1846 1950 2123 2285 2170 1788 1382 1428 1508 1524 1637 1809 2348 2335 2801 2911 2770 310 7
0 105 287 451 953 1415 1276 1142 1136 1150 1108 966 801 866 1245 1245 1358 1781 1823 1870 1954 1917 1928 2015 2056 1998 2052 1878 1520 1466 1665 1793 1583 1721 1980 2167 2458 2365 2910 2496 1033 29 0
0 0 193 573 724 1025 1238 1125 1008 1021 1040 1026 935 938 1173 1409 1405 1462 1403 1635 1578 1735 2044 2060 1900 1782 1619 1498 1565 1793 1932 1837 1780 1802 2250 2416 2117 2729 2469 1973 135 0 0
300 64 264 366 649 1125 1364 1209 1135 1144 1023 1045 1194 1183 1308 1384 1427 1471 1452 1426 1445 1481 1350 1198 1320 1495 1494 1628 1768 2091 1964 1935 2056 2253 2258 2210 2747 2690 1688 871 7 0 0
798 406 370 730 578 617 758 1024 1104 1182 1106 1079 1087 1080 1257 1269 1205 1229 1556 1391 1330 1452 1630 1621 1663 1851 1949 1999 1865 1721 1739 2034 2077 2018 1880 2456 2790 2274 1566 1235 48 0 0
1099 954 660 536 995 1127 1189 984 903 1163 1014 1060 1132 1146 1075 1325 1291 1141 1244 1279 1208 1235 1239 1190 1281 1202 1250 1328 1488 1403 2127 2146 1778 2173 2805 3005 2671 1894 1674 1291 104 0 0

GFSMA_con_mlcape_069.txt.gz
CAPE
21 142 104 179 188 317 194 91 150 319 269 370 428 458 476 261 336 595 1073 952 1383 1162 1078 1141 1047 1071 973 755 595 264 312 420 164 132 34 114 516 411 426 413 364 322 220
135 233 369 339 357 230 348 172 153 293 416 407 436 324 333 161 141 408 748 830 919 1211 1249 1285 918 1143 717 408 752 635 234 84 1 55 164 443 529 460 424 365 282 211 104
124 231 147 88 148 117 359 325 207 440 431 256 284 271 301 41 80 276 199 414 886 1130 1107 792 793 708 550 391 370 237 155 334 568 708 598 518 494 398 441 315 137 108 0
252 325 1 53 102 205 312 257 207 368 244 186 193 121 15 5 40 19 36 60 328 529 1094 889 498 357 297 413 499 639 822 781 608 516 438 523 492 378 199 116 48 6 0
175 326 101 196 279 373 191 101 275 195 173 173 210 142 96 77 0 0 30 39 54 43 55 230 436 302 299 522 621 794 807 747 610 480 552 344 187 57 15 22 0 0 0
221 92 59 216 382 228 33 56 130 112 113 141 189 306 227 250 364 155 186 131 146 167 95 72 2 206 290 427 689 710 614 789 882 718 427 126 35 0 0 0 0 0 0
160 0 102 167 0 80 110 75 38 88 83 59 103 149 117 107 301 390 315 326 452 500 469 524 257 151 167 332 423 569 450 338 322 357 155 34 0 0 0 0 0 0 0
623 354 256 453 30 77 75 61 41 113 56 33 55 25 40 0 1 191 236 231 302 488 590 540 519 392 295 211 314 286 367 81 13 63 32 0 0 0 0 0 0 0 0
717 542 544 432 357 35 34 19 45 33 22 15 12 73 52 0 13 4 11 49 82 157 353 442 508 483 416 225 276 448 440 406 26 0 0 14 0 0 0 0 0 0 0
1044 830 652 525 286 20 169 198 217 70 13 17 11 3 35 6 2 0 0 0 13 30 53 121 343 487 586 490 371 393 372 401 329 70 0 17 20 1 0 0 0 0 0
941 1067 794 626 378 238 117 274 432 323 257 32 37 126 13 0 0 14 29 23 40 70 50 154 220 271 343 421 397 321 352 422 468 347 202 50 27 63 28 0 0 0 0
950 879 908 863 680 233 386 290 285 370 441 450 381 355 63 6 22 93 96 78 120 97 41 68 148 213 221 240 283 325 360 400 456 454 316 238 128 57 41 50 1 0 0
737 977 776 928 684 450 391 468 493 646 370 481 550 273 274 183 52 41 36 129 226 115 112 140 132 185 214 215 243 306 329 347 380 409 393 338 253 165 68 13 21 41 75
747 966 850 848 915 706 454 643 667 816 907 467 613 698 481 195 326 291 0 34 78 108 178 577 438 336 365 327 272 270 296 324 359 425 430 384 317 210 99 57 24 31 57
763 942 1013 894 913 864 643 665 737 662 909 719 610 648 471 512 221 102 598 34 33 36 118 173 303 296 629 581 452 412 520 641 740 933 871 931 1010 858 648 356 256 284 337
649 826 1022 923 1003 1038 977 666 947 825 890 843 768 603 482 269 228 50 387 695 301 172 159 89 217 255 681 824 723 1145 1231 1279 1491 1417 1542 1303 873 877 943 914 963 1051 884
717 786 849 940 933 1063 1096 923 610 754 906 833 810 767 593 535 387 402 595 733 859 831 740 587 387 797 926 1218 1412 1204 1624 1910 1569 1567 1041 1011 1127 1430 1600 1725 1791 1651 1162
425 851 855 929 999 1042 1040 999 828 792 779 772 970 880 752 859 842 989 960 926 1004 936 992 1012 887 1222 1493 1437 1282 1339 2031 1751 2049 1244 1202 1153 1432 1744 1984 2014 1758 1303 692
94 211 532 954 1119 1065 960 1020 913 860 925 959 883 1181 1094 952 1031 1322 1322 1332 1390 1527 1397 1334 1416 1357 1336 1265 1411 1937 2144 2050 1235 1422 1367 1357 1633 1976 2181 2009 1392 446 86
34 78 292 738 986 942 1020 1054 1042 1000 975 1064 1044 1034 1056 1159 1236 1204 1160 1276 1607 1442 1341 1326 1305 1362 1498 1693 1787 1678 1448 1396 1436 1640 1320 1529 1774 2229 2320 1843 698 30 0
0 6 120 450 998 1173 1127 1106 1061 1098 1084 1136 1200 1186 1188 1168 1161 1442 1478 1474 1255 1426 1598 1552 1521 1513 1466 1365 1375 1750 1547 1438 1612 1569 1433 1686 2026 2382 2239 1329 62 0 0
0 0 0 35 259 743 1078 1118 1106 1136 1228 1140 1084 1039 1098 1126 1066 1089 1356 1747 1912 1905 1714 1632 1650 1657 1662 1619 1509 1461 1358 1511 1739 1486 1800 1887 2188 2376 2349 387 0 0 0
0 0 0 0 0 117 433 775 1010 1159 1108 988 944 929 876 1037 968 961 1093 1016 1138 1356 1670 1906 1799 1740 1693 1573 1512 1422 1460 1713 1852 1619 1863 2058 1908 2377 1823 0 0 0 0
4 3 0 0 0 0 8 85 369 915 1109 1053 1026 1010 917 909 1018 1004 1177 1236 1245 1287 1179 1239 1418 1652 1672 1686 1533 1610 1653 1738 1611 1674 1963 2050 1984 2490 982 0 0 0 0
205 137 48 0 0 37 65 35 53 403 829 975 992 1022 1070 1051 1006 1003 1132 1197 1174 1325 1437 1246 1186 1218 1207 1229 1173 1352 1585 1497 1518 1742 1650 1636 2349 2542 1497 439 0 0 0
649 473 367 110 89 230 111 91 261 533 498 812 1084 1036 893 866 829 938 1033 1136 1122 1117 1217 1170 1080 1031 1066 1069 969 916 1381 1603 1636 1877 1920 2448 2545 2066 1546 908 31 0 0

GFSMA_con_mlcape_072.txt.gz
CAPE
36 149 164 239 291 449 324 187 345 473 414 532 563 592 683 459 434 707 1108 1131 1232 1117 1183 1176 922 994 894 749 635 292 272 287 131 30 59 193 529 287 366 358 225 171 49
59 157 214 278 371 321 416 234 270 361 676 480 556 514 501 280 321 447 830 1047 1217 1450 1294 1239 1047 1060 856 507 488 781 489 129 72 306 526 585 445 427 381 261 171 94 0
120 202 306 294 272 229 411 455 324 501 495 358 475 417 436 340 129 320 470 706 799 1148 1238 1149 839 769 636 505 422 442 331 425 709 742 554 471 542 459 399 238 69 0 0
106 249 201 100 165 255 377 417 310 477 308 289 316 269 292 96 52 149 203 197 310 550 811 1271 819 587 520 474 538 624 812 838 739 575 492 615 491 292 69 53 0 0 0
238 328 81 154 299 406 341 168 349 370 245 328 326 256 127 113 49 26 36 60 93 146 89 118 345 500 415 658 740 752 840 751 753 847 588 425 140 33 0 0 0 0 0
113 228 131 265 372 271 221 69 234 154 205 229 347 483 416 348 318 256 133 101 68 123 159 110 102 38 229 429 534 701 753 519 485 464 508 219 48 0 0 0 0 0 0
269 60 74 233 199 206 90 152 90 221 213 151 263 270 299 210 202 337 451 335 318 408 484 492 514 448 291 234 380 500 512 566 242 148 164 109 33 0 0 0 0 0 0
164 17 75 259 70 133 182 135 70 122 130 57 140 128 125 1 0 0 59 276 289 363 529 626 636 623 491 408 244 342 540 421 394 67 26 34 9 0 0 0 0 0 0
497 377 242 357 24 101 68 56 51 115 94 63 44 119 172 28 0 0 3 10 56 103 156 302 530 541 563 502 410 282 298 443 455 531 161 21 10 11 0 0 0 0 0
690 652 365 366 331 84 115 32 130 82 23 37 59 22 34 31 40 33 0 1 12 69 87 93 232 364 545 572 544 528 414 350 376 451 564 363 168 59 15 0 0 0 0
812 781 567 515 301 102 185 336 280 167 124 21 46 185 57 13 0 30 136 84 55 96 133 136 256 330 355 356 328 328 291 259 256 310 411 490 438 321 305 323 140 37 8
777 818 876 777 475 346 257 149 299 304 405 361 284 363 243 59 30 114 134 107 105 160 106 105 116 179 242 255 264 261 285 312 306 280 291 332 432 486 529 506 465 341 154
544 793 745 821 542 554 324 446 272 349 276 476 507 355 321 324 77 67 52 142 235 208 217 365 302 283 316 321 339 313 327 263 300 402 554 738 858 877 782 731 666 621 584
487 511 789 731 794 598 502 444 481 571 699 517 554 666 608 369 307 280 237 68 135 110 162 419 466 458 620 672 517 512 809 891 910 1029 1157 1254 797 697 685 669 651 672 712
385 630 667 750 715 811 733 418 648 710 718 799 715 631 636 644 401 151 480 250 132 138 157 234 388 345 621 907 942 1214 1201 1392 1541 1339 1232 885 920 1022 1339 1347 1225 1156 1077
476 526 624 725 836 794 879 802 632 721 798 825 853 806 673 571 469 241 224 499 478 479 439 202 412 465 949 1292 1525 1481 1363 1719 1657 1920 1031 1113 1011 1529 1817 1628 1834 1675 1219
519 666 741 848 817 689 728 729 781 646 767 821 835 739 814 684 688 545 518 834 739 590 947 1041 713 998 1242 1650 1512 1407 1837 2171 2249 1268 1372 1175 1242 1578 1797 1992 1855 1076 461
281 501 722 870 903 873 852 1010 1076 904 553 540 786 836 794 841 870 919 997 1075 1142 1104 1035 1012 1194 1326 1425 1387 1546 1592 1960 2128 1728 1586 1588 1174 1385 1697 1709 1774 839 174 1
163 260 425 778 961 988 940 1006 1085 1042 896 722 745 791 908 1049 953 991 1161 1314 1369 1461 1526 1428 1378 1474 1478 1549 1684 1632 1547 1820 1570 1601 1564 1339 1652 1872 1544 901 216 0 0
0 96 206 268 513 659 916 1064 1007 992 990 870 834 887 987 977 1062 1200 1177 1297 1311 1335 1448 1402 1411 1537 1512 1679 1668 1424 1448 1796 1500 1731 1710 1538 1667 1958 1140 450 11 0 0
0 0 57 177 244 429 672 860 901 880 1003 950 938 928 969 1043 1053 1092 1164 1185 1434 1490 1465 1496 1582 1541 1500 1396 1481 1721 1630 1527 1577 1710 1923 1738 2068 2358 1651 257 0 0 0
0 0 0 0 34 288 419 570 930 1001 1030 1060 951 1021 1079 1052 1036 969 911 949 1190 1402 1618 1712 1748 1506 1429 1506 1570 1542 1552 1599 1434 1674 1898 1572 2219 2170 1717 140 0 0 0
0 0 0 0 0 25 94 205 379 790 981 1051 1010 1030 1036 1021 914 976 837 742 670 776 1039 1428 1338 1373 1373 1628 1635 1523 1566 1523 1560 1754 1725 1749 2041 2036 981 1 0 0 0
0 0 0 0 0 0 0 0 13 243 592 759 964 1008 1022 1008 937 946 922 855 934 948 1009 922 1016 1287 1503 1555 1465 1509 1422 1259 1394 1551 1535 1848 1941 1979 838 11 0 0 0
4 0 0 0 0 17 0 0 0 10 51 229 538 681 746 756 782 695 937 890 772 904 1109 1004 1049 1155 1133 1032 1003 1076 1145 1184 1339 1500 1659 1868 1937 2451 1848 765 0 0 0
392 200 116 49 22 64 1 0 0 32 29 3 118 295 223 428 528 587 771 742 585 499 822 990 1050 819 770 875 576 627 1061 1159 1325 1432 1587 1696 2217 2369 2139 1145 274 0 0

GFSMA_con_mlcape_075.txt.gz
CAPE
662 796 803 856 943 1115 978 812 1065 1135 1294 1255 1232 1368 1257 752 528 629 879 1126 1234 1182 1151 1141 950 985 806 787 583 475 354 262 139 95 283 444 526 428 230 309 141 105 0
489 560 751 862 994 1015 932 916 1050 1128 1375 1132 1214 1285 1060 606 600 686 627 852 914 1354 1304 1244 1179 942 1006 640 415 466 583 334 346 581 766 472 473 417 365 260 9 0 0
468 802 942 1007 955 890 1136 1158 948 1247 1023 1137 1095 1093 1044 857 482 610 564 714 827 924 1161 1245 956 811 774 636 537 586 620 694 877 655 602 498 576 482 308 131 0 0 0
494 826 786 702 780 946 1090 1195 1055 1171 927 916 991 892 900 651 582 609 596 620 534 703 798 882 1192 880 673 662 669 717 759 842 838 772 636 542 474 257 44 10 0 0 0
706 746 896 677 843 1084 1086 748 1029 1055 863 926 833 897 787 722 755 444 638 640 689 678 643 433 198 322 592 717 798 860 901 853 612 580 701 604 372 80 0 0 0 0 0
754 724 655 816 1013 860 782 523 888 726 805 841 737 875 1079 1053 1107 1041 1003 780 777 796 825 951 944 768 334 353 567 670 723 707 488 377 365 412 215 21 0 0 0 0 0
594 553 651 858 921 846 731 577 682 810 774 714 770 669 798 919 868 866 1044 1088 1031 994 1055 1202 1332 1142 1008 631 475 454 562 653 618 574 183 129 132 42 0 0 0 0 0
901 606 314 658 651 730 565 699 473 465 597 480 597 593 405 296 278 311 473 661 957 972 940 1108 1326 1451 1418 1206 968 484 400 505 735 746 757 250 83 37 0 0 0 0 0
1016 849 593 955 606 705 688 572 379 646 604 430 395 505 502 295 445 322 446 429 472 659 796 893 1014 1258 1379 1319 1181 1025 670 398 375 521 640 772 594 339 150 55 0 0 0
1234 1103 983 990 760 576 449 281 501 509 331 372 351 306 325 393 368 327 536 345 449 530 752 843 812 1018 1151 1187 1038 833 516 394 350 363 440 521 663 620 475 439 361 190 32
1283 1373 1159 1004 850 847 814 861 654 545 408 183 238 662 514 354 281 569 548 653 689 722 789 777 849 913 993 1021 993 880 402 278 273 320 451 633 881 1155 1319 1294 1133 994 744
1496 1568 1290 1302 913 977 603 886 1204 1006 1156 1031 899 959 961 564 507 745 794 875 685 772 820 884 1014 982 1040 1086 927 544 494 537 678 804 964 1124 996 898 1022 1190 1341 1371 1355
1109 1354 1443 935 942 1186 1127 1106 909 1093 1066 1086 1292 1213 1066 1143 804 781 527 685 731 896 926 1256 1268 1392 1333 1551 1332 777 1313 1092 1240 1264 1206 877 862 958 1333 1448 1334 1297 1434
1025 1292 1415 1498 1048 1262 1174 1107 1205 1218 1250 1197 1264 834 1496 1325 1161 1039 1229 751 543 650 784 820 1351 1171 1483 1688 1716 1680 1978 1639 1762 1458 1399 1059 1058 1187 1546 1670 1674 1683 1600
856 1063 1247 1411 1445 1392 1375 1251 1110 881 1067 1325 1625 1383 1437 1545 1404 1085 1167 1080 898 617 680 849 806 1272 1629 1834 2094 2150 2153 1934 1777 1905 1166 1384 1001 1337 1676 1816 2093 1956 1467
881 1081 1270 1405 1054 1354 1414 1398 1264 1244 1345 1492 1426 1640 1536 1346 1360 1224 973 1091 1061 1172 834 1226 1234 1584 1901 2105 1899 2278 2292 2424 2398 1670 1594 1172 1127 1379 1841 2129 1889 1312 701
1019 1167 1328 1307 1411 1388 1599 1542 1460 1587 1311 1673 1595 1606 1551 1693 1227 1227 1150 1273 1419 1212 979 763 1643 1779 1981 2437 2240 2473 2024 1929 1844 1741 1550 1169 1300 1578 1835 1770 974 359 44
991 1075 1285 1500 1544 1592 1647 1503 1379 1432 1143 1218 1403 1613 1449 1470 1504 1648 1657 1566 1430 1821 1541 1462 1557 1732 2091 2287 2487 2646 2301 1804 2434 1727 1613 1286 1555 1730 1659 1174 451 2 0
714 949 1089 1178 1511 1655 1674 1666 1676 1375 1615 1647 1448 1461 1499 1766 1737 1592 1728 1773 1639 1965 2051 2006 1761 1922 2046 2118 2129 1800 2296 2449 1998 1675 1801 1712 1908 1804 1155 616 17 0 0
250 604 869 1033 1184 1578 1776 1759 1778 1770 1893 1885 1729 1601 1492 1594 1624 1979 2075 2127 1975 1993 1894 2087 1684 1645 1814 1951 2136 1528 1490 1613 1981 2010 1928 1843 1856 1829 589 89 0 0 0
365 337 524 745 978 1137 1239 1479 1608 1765 1712 1586 1797 1720 1612 1488 1185 1366 1452 1534 1842 1844 1792 1785 1646 1524 1428 1338 1329 1383 1329 1598 1710 2199 2080 1356 1726 2747 1694 74 0 0 0
428 389 317 352 504 718 564 526 1028 1452 1583 1497 1496 1774 1717 1269 996 811 791 919 1241 1536 1520 1334 990 995 1615 1708 1187 1393 1324 1508 1252 1404 2071 1477 1833 2719 2965 1186 0 0 0
346 370 335 388 334 387 344 278 331 786 1413 1543 1508 1626 1737 1481 1380 1646 1160 707 648 641 816 1193 1219 1332 1295 1520 1827 1937 1525 1689 1569 1329 1696 1537 1787 2588 2798 121 0 0 0
396 383 407 401 372 382 135 16 33 360 997 1349 1432 1555 1636 1585 1726 1557 1580 1639 1683 1643 1311 823 966 1290 1648 1894 2133 2030 2068 1919 1776 1590 1870 1765 1702 2514 2717 934 0 0 0
493 415 416 435 457 425 133 3 0 116 262 853 1183 1231 1375 1449 1449 787 956 1154 1377 1546 1324 1153 882 1079 1085 952 1048 1485 1454 1299 960 828 1223 1733 1854 2515 2934 2506 172 0 0
742 661 527 476 424 475 349 50 0 121 300 322 522 772 722 621 793 511 498 574 735 807 1011 865 1122 960 650 852 453 789 1380 1351 1041 882 1147 1655 1440 2119 2315 2520 1380 78 4

GFSMA_con_mlcape_081.txt.gz
CAPE
867 872 1132 829 976 1022 938 1202 1491 1545 1283 1095 907 616 148 291 414 557 143 364 554 568 792 863 684 934 933 608 541 571 691 685 653 925 880 711 579 617 445 403 277 79 0
994 965 1128 1296 1196 1419 1385 1447 1383 1431 1183 889 1022 830 633 667 878 1077 1125 650 474 550 508 940 1014 718 635 703 712 708 747 801 943 878 727 626 572 519 348 210 191 34 0
1523 1189 855 891 1108 1270 1695 1392 1483 1177 1000 789 969 836 713 842 709 775 881 1170 925 589 455 478 516 535 560 686 725 716 807 796 714 674 678 696 459 345 183 23 6 16 0
1218 1517 1008 923 817 1376 1069 1096 1332 767 837 773 711 745 474 603 672 599 527 802 551 1104 901 665 550 565 673 775 820 906 788 591 525 371 254 259 222 171 70 0 0 0 0
1414 1856 895 987 1406 962 833 746 969 877 745 632 449 444 398 431 790 409 671 647 397 611 734 843 696 616 491 560 705 706 608 554 496 359 162 50 39 63 42 0 0 0 0
1594 1828 916 1006 1375 935 919 996 1425 907 657 607 325 223 302 266 259 377 586 641 589 876 806 915 1222 1122 686 591 365 350 463 603 783 791 704 602 365 138 116 40 0 0 0
1502 1466 1075 1165 1190 1120 1068 1031 921 905 447 122 710 284 35 177 316 188 359 402 502 727 549 875 1217 1032 1087 1015 888 565 512 514 588 673 736 761 779 850 691 458 229 23 0
1623 1341 1403 1208 1428 1120 1221 1241 1375 1432 23 331 601 606 447 172 96 183 181 182 387 444 484 804 687 1029 1363 1178 1356 1008 947 805 707 692 705 729 842 971 1096 1082 968 716 340
1456 1621 1455 1550 1481 1284 961 1268 1033 563 953 164 724 580 786 410 600 255 332 238 266 385 484 595 720 1086 1331 1361 1362 1526 1094 707 501 562 802 1101 1273 1262 1239 1336 1539 1640 1365
1332 1423 1412 1528 1644 1173 1420 975 551 1642 1099 686 221 350 818 991 1149 495 110 103 198 446 529 669 814 819 1066 1528 1238 1405 973 541 766 1095 1296 1262 1195 1234 1325 1699 1978 1910 1721
1324 1076 1556 1540 1582 1392 1182 1153 1292 1222 743 636 248 267 147 166 277 631 154 58 159 365 598 887 713 842 1221 1609 1462 1118 1216 1079 1323 1365 1285 1341 1247 1320 1480 2075 2243 2282 2173
1051 1347 1268 1595 1427 1273 1585 1527 1477 1563 1426 1843 1406 271 317 329 822 905 454 512 447 683 810 874 909 1063 1231 1593 1638 1307 1646 1499 1436 1461 1569 1130 1338 1124 1614 2018 2309 2520 2413
921 1667 1480 1620 1320 1436 1628 1727 1766 1449 1581 890 1068 967 952 412 331 1018 667 385 862 716 1097 997 1013 1154 1344 1606 1985 1675 2119 1789 1600 1699 1244 1382 1058 1126 1388 1855 2210 2011 1556
854 2245 1662 1364 1387 1393 1493 1596 1427 1371 1064 1141 1097 1420 1478 629 560 661 1072 1025 1032 588 923 1213 1313 1233 1438 1636 1840 1972 1894 1926 1587 1850 1452 1240 976 1121 1443 1744 1736 1075 542
872 1481 1071 1318 1344 1351 1452 1523 1455 1776 1700 1700 1121 1235 1245 931 382 632 585 748 1075 1292 1169 1697 819 1787 1806 1726 1849 2317 2220 2194 1424 1922 1457 1020 954 1197 1655 1654 965 379 19
1104 849 1219 1572 1664 1313 1441 1506 1459 1526 1436 1363 771 1628 1241 723 728 624 730 765 784 901 1000 989 930 1528 2122 2423 1874 2387 2471 2142 1844 1706 1312 1101 1085 1330 1714 1293 555 37 0
1179 1246 1688 1624 1774 1835 1699 1684 1489 1701 1847 1514 1575 1686 1465 1683 1385 784 567 566 660 837 915 885 1188 1052 2022 2079 2608 2840 2652 2465 1575 1456 1188 1209 1259 1398 1501 1157 457 0 0
1225 1086 1469 1818 1893 1545 1760 1874 1743 1066 1327 1703 1415 1403 1372 1252 1797 1706 1494 1379 1119 1650 1435 1519 1402 1093 1292 1822 2378 2755 2507 1964 1864 1300 1148 1046 1298 1344 1352 1008 510 14 0
1441 1049 1334 1674 1866 1362 1800 1863 1857 1775 1851 1817 1828 1526 1321 1437 1674 1368 1597 1035 983 1480 1574 1680 1429 1170 1056 1269 1574 2255 2507 1713 1534 864 735 859 1148 1111 977 678 268 3 0
1557 1470 1208 1486 1870 1545 1287 1663 1946 1672 1960 1930 1802 1849 1717 1443 1599 1748 1792 1814 1546 1345 1141 1022 930 1067 1218 1369 1440 1577 1239 795 843 787 860 1256 887 786 592 591 60 0 0
1631 1699 1658 1297 1524 1565 1441 1410 1685 1744 1761 2214 1936 2042 2096 1636 1306 1563 1394 1652 1695 1713 1185 924 910 976 1057 1271 1530 1359 904 735 669 509 426 703 374 667 265 168 0 0 0
1755 1955 1806 1721 1370 1043 516 744 1582 1896 1958 2268 1964 1932 1874 2012 1836 1568 1059 671 954 1900 2057 1309 933 650 883 788 562 687 854 577 747 779 529 572 505 703 789 623 363 0 0
1514 1827 1904 1877 1845 1751 946 262 410 1009 1387 1934 2019 2142 2009 1146 1757 2246 1765 1200 702 385 395 1015 1589 1532 1232 1437 1641 2114 1471 1713 1372 1028 862 806 830 747 653 587 391 20 0
1635 1571 1804 2001 2092 2076 1480 858 287 510 893 1243 1454 1979 2211 1857 1814 2106 2239 2058 2131 2038 1543 948 858 1073 1540 1854 1879 1761 2223 2357 2110 1963 1826 1115 489 396 416 903 0 54 1
1150 1317 1547 1697 1577 2104 1692 1154 815 819 532 741 1160 1324 1374 1960 2317 1582 1408 1892 2068 1988 1263 1601 1416 1415 1240 956 840 891 578 515 405 183 167 143 207 263 252 481 38 0 3
1295 1479 1398 1234 1361 1653 1922 1518 1005 1182 1015 914 1098 1214 1027 1007 1223 1469 1731 1732 1790 1823 2043 1025 863 1184 1079 1202 806 722 826 472 359 324 167 116 148 222 352 317 772 71 0

GFSMA_con_mlcape_084.txt.gz
CAPE
968 991 316 715 950 1412 750 529 768 892 1004 1302 712 148 185 694 458 187 160 129 322 829 740 629 529 882 899 660 652 660 727 727 793 924 527 416 328 406 379 299 259 31 0
1315 601 817 995 939 1570 1318 0 893 1442 710 991 486 762 557 613 938 458 255 336 300 260 477 828 730 475 409 454 521 508 513 541 585 558 508 396 270 161 98 94 51 56 0
1180 644 62 488 1164 1547 1835 1098 1563 1069 1072 1021 671 607 810 837 727 939 1037 798 599 641 457 413 415 355 365 381 379 398 496 435 299 217 110 158 275 159 73 14 7 47 1
1274 1563 910 482 1180 383 1122 676 1253 739 719 924 796 881 803 473 597 700 803 1105 1142 852 621 536 368 406 447 523 494 532 457 305 132 63 41 40 75 76 83 34 0 0 36
1323 1435 1140 689 1771 794 906 865 828 752 886 503 455 665 701 611 730 675 711 773 285 1239 1156 744 706 542 419 448 456 507 447 421 413 490 516 466 346 198 128 121 104 1 0
1456 1464 1544 1095 328 1299 960 743 796 474 707 189 379 513 522 335 453 665 623 782 584 741 1145 1195 1132 972 570 706 374 319 363 431 508 614 710 777 800 841 851 724 497 310 16
1483 1565 1554 1154 354 760 837 1595 1334 1301 815 826 1380 704 157 21 202 340 629 713 572 921 759 976 1526 1397 849 981 933 562 592 631 662 701 780 861 949 1112 1268 1341 1260 1131 861
1330 1468 1157 1312 928 949 1434 1312 407 1332 539 521 858 1098 474 398 408 266 272 337 386 654 742 952 896 1081 1255 1597 1267 1046 1111 933 784 789 912 1129 1325 1317 1307 1418 1585 1657 1605
1531 1375 1570 1400 1107 442 1109 1315 1418 327 561 540 789 504 909 805 1193 251 177 238 314 642 578 478 1000 1172 1341 1397 1554 1485 1449 962 917 1007 1380 1362 1397 1393 1385 1719 2048 2026 1879
1389 1317 1486 1609 1096 504 222 1108 1002 1127 1051 849 864 183 727 315 986 790 267 90 449 466 623 947 907 1063 1037 1394 1709 1334 908 937 982 1275 1362 1719 1337 1513 1723 2105 2382 2402 2262
1544 1181 1551 1536 1436 1278 757 1454 1131 1116 1332 1225 1545 486 502 1031 701 1002 242 134 342 585 610 938 810 985 1222 1621 1481 1163 1135 1407 1445 1327 1512 1144 1491 1266 1757 2155 2573 2646 2515
1332 1411 1631 1665 1463 519 68 1681 1396 1435 1480 1748 1069 939 1088 208 580 1094 950 779 422 682 870 825 849 1186 1293 2039 1648 1507 1575 1766 1735 1338 1455 1268 1156 1272 1654 2116 2522 2240 1915
740 1198 1414 1588 1586 1169 1183 1520 1641 1505 1975 908 1329 1006 1300 1413 578 970 1101 1296 751 793 1255 961 979 1155 1337 1498 2002 2007 2093 1821 1820 1431 1634 1253 926 1108 1661 2020 1851 1388 951
605 1413 1343 1727 1688 1434 1610 1595 1871 1278 1490 983 594 762 1198 1507 1518 906 813 985 1100 1329 973 1583 1356 1373 1606 1872 2028 1948 2577 2022 1943 1596 1689 1275 865 1178 1731 1867 1242 664 89
502 1101 934 1478 1337 1540 1448 1525 1304 1527 1595 1620 1307 992 912 874 937 739 710 337 804 1118 1419 1400 923 1662 1998 2051 2107 2061 2712 2632 2047 1820 1904 1311 900 1204 1716 1651 1073 363 0
573 516 604 978 1372 1600 1544 1527 1643 1204 1519 1559 1252 1486 990 678 1090 1394 699 725 998 887 974 1482 1088 1903 2175 2193 1942 2338 2606 2500 2425 2256 1448 1278 955 1184 1576 1527 1082 286 0
1167 425 0 370 1350 1449 1461 1500 1109 1166 1340 1095 1378 1153 1476 1364 1227 1403 1921 1633 677 790 1114 1297 1758 1806 1515 1289 1650 2479 2570 2845 2424 1613 1405 1241 978 1095 1214 1363 1008 244 0
1254 1210 1372 1519 1599 1495 1526 1459 1491 1175 1222 1409 1404 1243 1227 1612 1434 1503 1286 1070 1317 1076 1133 1270 1346 810 914 1482 2219 2452 2393 2598 2149 1772 1280 1089 925 934 962 1072 935 292 0
1584 1562 1162 1513 1750 1800 1630 1576 1398 1416 1629 1521 1725 1546 1242 1568 1512 1188 1692 1678 1625 1618 1400 1346 1365 1870 1216 862 1159 1583 2189 2201 2480 970 716 665 701 761 772 763 803 216 0
1879 1859 1685 1786 1755 1847 1916 1752 1893 1696 1861 1644 1849 2010 2087 1917 1616 1472 1456 1460 1549 1634 1312 1150 1003 834 1061 1312 1875 2010 1729 811 818 908 668 679 643 515 488 466 463 109 0
2029 2094 2054 1739 1923 2154 1803 1538 1683 1957 1523 1389 1644 1914 2147 2126 1696 1957 1769 1652 1733 1492 1814 1562 1460 1246 1285 1718 916 849 817 1376 1011 587 700 812 746 358 193 136 253 177 0
1902 2072 2063 2176 1916 1470 1181 1071 1205 1207 2076 1979 1488 1772 2054 1964 1783 1366 1021 1012 929 1342 1521 1912 1898 1276 867 789 1332 1382 1168 717 440 1749 1354 557 680 539 1046 274 274 243 0
1290 1636 1959 2136 2120 2180 1544 932 448 1330 2054 1988 1843 1982 2034 1696 1329 1548 1359 1244 1050 576 360 456 622 829 955 942 1250 1113 1382 1293 1249 1167 1425 1366 1421 1247 1210 528 436 244 1
1172 1289 1477 1857 2016 2260 2097 1791 1118 831 770 1160 1336 1783 2042 1787 1650 1899 2310 2332 1928 1651 1368 851 547 380 384 469 736 818 952 1527 2065 2366 2281 1712 1540 1460 1031 293 204 141 24
435 1059 1353 1433 1660 1977 2019 1495 1493 1308 1155 936 846 1173 1425 1486 2156 2116 1249 1155 1774 2568 2424 1902 1590 1232 874 646 587 847 914 706 473 360 431 319 193 140 317 330 8 1 0
0 168 658 1354 1530 1350 1814 1584 1142 1662 1530 1497 1402 1147 741 712 1219 933 990 2004 1764 1225 1223 1585 1637 981 908 933 827 796 965 824 675 570 452 272 426 253 269 509 160 0 0

GFSMA_con_mlcape_087.txt.gz
CAPE
803 594 599 826 974 196 592 27 500 916 658 519 46 47 197 286 22 15 37 234 843 972 349 399 473 773 643 518 534 509 536 547 522 718 639 469 430 429 403 311 208 10 0
492 222 640 701 589 1040 630 177 609 889 737 473 234 173 383 372 234 51 18 155 302 440 489 539 494 314 271 289 312 297 242 282 309 295 252 172 324 522 376 181 86 77 2
202 425 186 445 905 1267 803 874 977 1363 861 360 637 492 515 525 337 302 174 219 300 250 441 632 427 286 274 223 167 134 159 225 160 187 93 46 62 168 346 263 83 36 54
587 610 309 655 512 549 843 539 797 488 539 717 604 440 682 378 373 591 744 566 484 481 451 468 453 319 305 333 296 262 310 307 280 330 394 455 432 373 278 268 279 98 46
1157 1021 828 617 1207 746 826 810 649 773 682 436 738 741 607 258 440 712 813 805 757 863 540 508 757 538 348 474 392 349 452 501 524 572 669 757 839 913 980 996 839 572 183
1185 890 1479 989 863 841 731 857 582 320 533 190 306 368 536 455 510 568 424 489 715 875 893 822 895 956 542 728 516 431 414 449 545 629 728 826 958 1136 1307 1446 1511 1427 1112
1364 1141 1110 249 572 467 642 1286 985 1135 1122 790 807 634 360 9 180 510 536 587 513 813 990 966 1072 1077 925 842 953 773 794 915 991 1015 1102 1351 1432 1359 1363 1401 1554 1733 1746
1163 1085 1131 735 695 736 1383 983 506 620 485 484 545 330 272 134 166 207 535 656 562 834 969 900 1095 941 965 1033 1187 1154 1136 1195 1186 1205 1512 1460 1509 1410 1437 1713 2028 2088 1958
1216 1021 1048 927 486 462 624 908 1387 422 633 563 458 530 663 516 701 124 107 316 53 634 699 806 789 840 888 1202 1557 1604 1449 1195 1163 1231 1519 1697 1395 1458 1640 1967 2342 2466 2235
1320 1358 1291 1032 1023 466 485 430 1325 1212 154 440 840 398 576 287 716 407 272 69 327 549 484 419 684 866 933 1056 1501 1543 1215 1254 1378 1349 1457 1417 1471 1335 1699 2055 2540 2607 2442
1178 1193 1121 1127 597 681 177 686 1333 935 1120 1398 1207 1039 849 680 1253 891 416 63 125 334 398 489 792 827 878 1474 1382 1011 1251 1453 1655 1517 1456 1344 1202 1364 1838 2287 2624 2184 2027
1136 914 1357 1192 984 571 442 841 1342 1201 1085 1017 1333 1033 951 740 738 1034 968 815 221 326 418 706 493 971 974 1564 1477 1482 1627 1669 1747 1694 1458 1431 1036 1188 1837 2353 2062 1588 1213
814 970 1283 1353 1085 767 61 708 1377 1189 1621 521 513 715 507 1088 1462 1252 719 982 917 943 980 721 760 884 1176 1721 1643 1831 2103 2014 1870 1826 1653 1556 1084 1088 1762 2113 1384 909 236
173 530 900 996 1356 912 1113 1385 1170 1092 1102 1126 485 386 66 484 798 898 1308 521 705 992 1165 1392 969 925 1580 1824 1818 1889 2176 2195 2063 1865 1820 1796 1237 1007 1668 1805 1073 461 0
800 985 837 960 1251 1342 996 1319 1167 1353 1226 982 866 560 326 342 339 732 1374 429 802 560 809 1125 1287 1939 1932 2043 1740 1667 2062 2351 2152 2147 2171 1653 1284 903 1401 1623 1134 317 0
562 407 690 811 1124 1300 1256 1073 1014 1021 1145 1193 1395 965 1115 1260 1072 903 1055 1468 1313 929 714 899 1281 2240 1703 1340 1242 1418 1855 2018 2162 2305 1974 1317 1176 813 1152 1439 1163 442 2
491 449 345 482 872 1172 1227 1252 1122 971 1234 1215 803 1333 933 1416 954 1105 777 984 986 1334 1095 1155 1404 1224 864 727 1395 1504 1794 2212 1992 2031 1790 1436 1092 820 929 1175 1069 559 102
687 702 240 0 417 1011 1449 1336 967 1119 913 1102 842 1192 661 985 990 1537 1316 822 1204 1222 1461 1157 964 989 1550 1775 1274 953 1260 2342 2107 2043 1554 848 886 740 679 871 877 621 123
1060 1049 813 819 1042 1133 1058 1510 1261 1073 1342 1187 1077 1115 1366 950 929 1307 856 829 1225 1087 1303 1542 1330 1259 1336 990 789 1221 1536 1936 976 1085 568 450 544 517 484 566 596 578 144
1557 1311 1298 1214 1341 1367 1463 1697 1471 1116 985 1335 1530 1611 1698 1188 1180 1231 1232 974 878 897 909 983 926 927 891 1137 1266 1029 969 1048 947 654 362 956 654 396 309 319 316 273 99
1845 1627 1452 1499 1746 1705 1406 1278 1545 1651 1580 1393 1280 1429 1620 1780 2041 1699 1690 1418 1211 966 1127 1290 1385 1759 1763 1614 1098 1366 981 862 592 241 517 640 569 517 346 171 156 61 41
1241 1760 1704 1736 1494 1522 1941 1660 1562 1361 1365 1631 1477 1348 1411 1449 1900 2008 1394 1382 1570 1221 913 1115 1149 1281 1270 1203 1124 516 425 77 4 659 810 417 982 903 891 526 350 99 25
1160 1240 1271 1440 1461 1717 1539 1110 827 848 1096 1168 1348 1636 1390 1464 1509 1793 1560 1054 989 816 820 802 447 183 147 144 199 172 198 262 333 559 1151 690 886 690 763 832 646 89 45
395 790 991 1122 1314 1393 1374 1371 1264 739 790 972 1108 1502 1790 1701 1656 1570 1417 1564 1768 1480 1281 1067 974 940 661 640 484 435 498 649 768 1060 1624 566 403 232 264 321 272 97 30
6 117 363 675 931 1143 1240 1121 960 919 1072 1040 997 1001 955 1008 1292 1460 1660 1706 1701 1762 1842 1604 1583 1546 1429 1147 770 736 846 851 703 513 401 339 182 123 50 335 127 3 0
0 0 0 88 339 698 980 820 846 923 1054 1237 1390 1325 1126 968 790 660 616 743 732 748 1112 1369 1258 951 986 1167 1032 692 842 635 590 504 433 286 174 110 171 158 126 0 0